Time,TemperatureF,DewpointF,PressureIn,WindDirection,WindDirectionDegrees,WindSpeedMPH,WindSpeedGustMPH,Humidity,HourlyPrecipIn,Conditions,Clouds,dailyrainin,SoftwareType,DateUTC
2013-02-22 00:00:00,21.2,17.6,29.35,ENE,63,1.0,13.0,86,0.00,,,0.00,meteohub,2013-02-22 05:00:00,
2013-02-22 00:01:00,21.0,17.2,29.35,NE,46,4.0,13.0,85,0.00,,,0.00,meteohub,2013-02-22 05:01:00,
2013-02-22 00:05:00,20.8,17.1,29.35,NNW,333,0.0,13.0,85,0.00,,,0.00,meteohub,2013-02-22 05:05:00,
2013-02-22 00:06:00,20.8,17.1,29.35,NNE,13,3.0,13.0,85,0.00,,,0.00,meteohub,2013-02-22 05:06:00,
2013-02-22 00:07:00,20.8,17.1,29.36,NNE,13,3.0,13.0,85,0.00,,,0.00,meteohub,2013-02-22 05:07:00,
2013-02-22 00:08:00,20.8,17.1,29.36,NE,49,6.0,13.0,85,0.00,,,0.00,meteohub,2013-02-22 05:08:00,
2013-02-22 00:11:00,20.5,16.7,29.36,NNE,26,9.0,13.0,85,0.00,,,0.00,meteohub,2013-02-22 05:11:00,
2013-02-22 00:12:00,20.3,16.5,29.36,NNE,16,9.0,13.0,85,0.00,,,0.00,meteohub,2013-02-22 05:12:00,
2013-02-22 00:13:00,20.3,16.7,29.36,West,267,5.0,13.0,86,0.00,,,0.00,meteohub,2013-02-22 05:13:00,
2013-02-22 00:14:00,20.1,16.7,29.36,WNW,299,4.0,13.0,86,0.00,,,0.00,meteohub,2013-02-22 05:14:00,
2013-02-22 00:17:00,19.9,16.5,29.36,North,9,5.0,15.0,86,0.00,,,0.00,meteohub,2013-02-22 05:17:00,
2013-02-22 00:19:00,19.9,16.5,29.37,North,355,2.0,15.0,86,0.00,,,0.00,meteohub,2013-02-22 05:19:00,
2013-02-22 00:20:00,19.8,16.5,29.37,NNE,17,4.0,15.0,87,0.00,,,0.00,meteohub,2013-02-22 05:20:00,
2013-02-22 00:22:00,19.8,16.5,29.37,North,9,7.0,15.0,87,0.00,,,0.00,meteohub,2013-02-22 05:22:00,
2013-02-22 00:23:00,19.8,16.5,29.37,North,5,7.0,15.0,87,0.00,,,0.00,meteohub,2013-02-22 05:23:00,
2013-02-22 00:24:00,19.6,16.3,29.37,NNE,32,8.0,15.0,87,0.00,,,0.00,meteohub,2013-02-22 05:24:00,
2013-02-22 00:25:00,19.4,16.2,29.37,NW,312,2.0,15.0,87,0.00,,,0.00,meteohub,2013-02-22 05:25:00,
2013-02-22 00:28:00,19.4,16.2,29.36,North,0,7.0,15.0,87,0.00,,,0.00,meteohub,2013-02-22 05:28:00,
2013-02-22 00:30:00,19.2,16.0,29.36,NNW,333,4.0,12.0,87,0.00,,,0.00,meteohub,2013-02-22 05:30:00,
2013-02-22 00:32:00,19.0,15.8,29.36,North,5,3.0,12.0,87,0.00,,,0.00,meteohub,2013-02-22 05:32:00,
2013-02-22 00:34:00,19.0,15.8,29.36,North,355,5.0,12.0,87,0.00,,,0.00,meteohub,2013-02-22 05:34:00,
2013-02-22 00:36:00,18.9,15.6,29.36,NNW,336,3.0,12.0,87,0.00,,,0.00,meteohub,2013-02-22 05:36:00,
2013-02-22 00:37:00,18.9,15.6,29.36,NNW,335,3.0,12.0,87,0.00,,,0.00,meteohub,2013-02-22 05:37:00,
2013-02-22 00:39:00,18.9,16.0,29.36,NW,308,3.0,12.0,88,0.00,,,0.00,meteohub,2013-02-22 05:39:00,
2013-02-22 00:42:00,19.0,16.2,29.36,NNE,17,6.0,12.0,88,0.00,,,0.00,meteohub,2013-02-22 05:42:00,
2013-02-22 00:43:00,19.0,16.2,29.37,North,355,4.0,12.0,88,0.00,,,0.00,meteohub,2013-02-22 05:43:00,
2013-02-22 00:46:00,19.0,16.2,29.36,NNW,338,3.0,13.0,88,0.00,,,0.00,meteohub,2013-02-22 05:46:00,
2013-02-22 00:47:00,19.0,16.2,29.36,NNW,327,3.0,13.0,88,0.00,,,0.00,meteohub,2013-02-22 05:47:00,
2013-02-22 00:50:00,19.0,16.2,29.37,NNW,344,4.0,13.0,88,0.00,,,0.00,meteohub,2013-02-22 05:50:00,
2013-02-22 00:52:00,19.0,16.2,29.37,NNW,344,9.0,13.0,88,0.00,,,0.00,meteohub,2013-02-22 05:52:00,
2013-02-22 00:56:00,19.0,16.2,29.37,NNW,346,4.0,13.0,88,0.00,,,0.00,meteohub,2013-02-22 05:56:00,
2013-02-22 00:57:00,19.0,16.2,29.37,North,351,6.0,13.0,88,0.00,,,0.00,meteohub,2013-02-22 05:57:00,
2013-02-22 00:59:00,19.0,16.2,29.37,North,0,7.0,13.0,88,0.00,,,0.00,meteohub,2013-02-22 05:59:00,
2013-02-22 01:01:00,19.2,16.3,29.36,North,5,10.0,13.0,88,0.00,,,0.00,meteohub,2013-02-22 06:01:00,
2013-02-22 01:02:00,19.2,16.3,29.36,NNW,329,5.0,13.0,88,0.00,,,0.00,meteohub,2013-02-22 06:02:00,
2013-02-22 01:03:00,19.2,16.3,29.36,NNW,335,1.0,13.0,88,0.00,,,0.00,meteohub,2013-02-22 06:03:00,
2013-02-22 01:04:00,19.2,16.3,29.37,NNW,335,2.0,13.0,88,0.00,,,0.00,meteohub,2013-02-22 06:04:00,
2013-02-22 01:07:00,19.4,16.5,29.36,NW,309,4.0,13.0,88,0.00,,,0.00,meteohub,2013-02-22 06:07:00,
2013-02-22 01:08:00,19.6,16.5,29.36,North,5,3.0,13.0,88,0.00,,,0.00,meteohub,2013-02-22 06:08:00,
2013-02-22 01:11:00,19.6,16.5,29.37,NW,323,4.0,13.0,88,0.00,,,0.00,meteohub,2013-02-22 06:11:00,
2013-02-22 01:12:00,19.6,16.5,29.37,NW,322,5.0,13.0,88,0.00,,,0.00,meteohub,2013-02-22 06:12:00,
2013-02-22 01:14:00,19.6,16.5,29.37,North,5,7.0,13.0,88,0.00,,,0.00,meteohub,2013-02-22 06:14:00,
2013-02-22 01:15:00,19.6,16.5,29.37,North,0,9.0,13.0,88,0.00,,,0.00,meteohub,2013-02-22 06:15:00,
2013-02-22 01:17:00,19.8,16.7,29.37,NNE,17,4.0,13.0,88,0.00,,,0.00,meteohub,2013-02-22 06:17:00,
2013-02-22 01:19:00,19.8,16.7,29.37,North,350,5.0,13.0,88,0.00,,,0.00,meteohub,2013-02-22 06:19:00,
2013-02-22 01:20:00,19.8,16.7,29.37,NW,311,3.0,13.0,88,0.00,,,0.00,meteohub,2013-02-22 06:20:00,
2013-02-22 01:21:00,19.8,16.7,29.37,NW,311,1.0,13.0,88,0.00,,,0.00,meteohub,2013-02-22 06:21:00,
2013-02-22 01:23:00,19.8,16.7,29.36,NNW,345,7.0,13.0,88,0.00,,,0.00,meteohub,2013-02-22 06:23:00,
2013-02-22 01:25:00,19.8,16.7,29.36,NE,36,2.0,13.0,88,0.00,,,0.00,meteohub,2013-02-22 06:25:00,
2013-02-22 01:26:00,19.8,16.7,29.36,North,355,0.0,11.0,88,0.00,,,0.00,meteohub,2013-02-22 06:26:00,
2013-02-22 01:27:00,19.8,16.7,29.36,North,355,0.0,11.0,88,0.00,,,0.00,meteohub,2013-02-22 06:27:00,
2013-02-22 01:29:00,19.8,16.7,29.36,NNW,334,6.0,11.0,88,0.00,,,0.00,meteohub,2013-02-22 06:29:00,
2013-02-22 01:30:00,19.8,17.1,29.36,WNW,284,3.0,11.0,89,0.00,,,0.00,meteohub,2013-02-22 06:30:00,
2013-02-22 01:31:00,19.9,17.2,29.36,NW,319,6.0,11.0,89,0.00,,,0.00,meteohub,2013-02-22 06:31:00,
2013-02-22 01:32:00,19.9,17.2,29.37,NNW,342,4.0,11.0,89,0.00,,,0.00,meteohub,2013-02-22 06:32:00,
2013-02-22 01:36:00,19.9,16.9,29.37,NW,306,0.0,11.0,88,0.00,,,0.00,meteohub,2013-02-22 06:36:00,
2013-02-22 01:37:00,19.9,16.9,29.37,NNW,344,6.0,11.0,88,0.00,,,0.00,meteohub,2013-02-22 06:37:00,
2013-02-22 01:41:00,19.9,16.9,29.36,NW,315,1.0,11.0,88,0.00,,,0.00,meteohub,2013-02-22 06:41:00,
2013-02-22 01:42:00,19.9,16.9,29.36,NW,315,1.0,11.0,88,0.00,,,0.00,meteohub,2013-02-22 06:42:00,
2013-02-22 01:43:00,19.9,16.9,29.36,North,0,5.0,11.0,88,0.00,,,0.00,meteohub,2013-02-22 06:43:00,
2013-02-22 01:44:00,19.9,16.9,29.36,NNE,26,4.0,11.0,88,0.00,,,0.00,meteohub,2013-02-22 06:44:00,
2013-02-22 01:46:00,19.8,16.7,29.36,North,10,3.0,10.0,88,0.00,,,0.00,meteohub,2013-02-22 06:46:00,
2013-02-22 01:47:00,19.8,16.7,29.36,North,11,3.0,10.0,88,0.00,,,0.00,meteohub,2013-02-22 06:47:00,
2013-02-22 01:49:00,19.8,16.7,29.36,NNW,327,5.0,10.0,88,0.00,,,0.00,meteohub,2013-02-22 06:49:00,
2013-02-22 01:51:00,19.8,16.7,29.36,NNW,333,0.0,10.0,88,0.00,,,0.00,meteohub,2013-02-22 06:51:00,
2013-02-22 01:52:00,19.8,16.7,29.36,NNE,15,10.0,10.0,88,0.00,,,0.00,meteohub,2013-02-22 06:52:00,
2013-02-22 01:53:00,19.8,16.7,29.36,NNE,24,4.0,10.0,88,0.00,,,0.00,meteohub,2013-02-22 06:53:00,
2013-02-22 01:55:00,19.8,16.7,29.36,NNE,27,0.0,10.0,88,0.00,,,0.00,meteohub,2013-02-22 06:55:00,
2013-02-22 01:57:00,19.8,16.7,29.36,NW,317,2.0,13.0,88,0.00,,,0.00,meteohub,2013-02-22 06:57:00,
2013-02-22 01:58:00,19.8,16.7,29.36,WNW,286,0.0,13.0,88,0.00,,,0.00,meteohub,2013-02-22 06:58:00,
2013-02-22 02:00:00,19.8,16.7,29.36,WNW,286,3.0,13.0,88,0.00,,,0.00,meteohub,2013-02-22 07:00:00,
2013-02-22 02:03:00,19.8,17.1,29.36,WNW,286,0.0,13.0,89,0.00,,,0.00,meteohub,2013-02-22 07:03:00,
2013-02-22 02:04:00,19.8,17.1,29.36,NNW,342,9.0,13.0,89,0.00,,,0.00,meteohub,2013-02-22 07:04:00,
2013-02-22 02:06:00,19.8,16.7,29.36,NNE,16,1.0,13.0,88,0.00,,,0.00,meteohub,2013-02-22 07:06:00,
2013-02-22 02:10:00,19.8,16.7,29.35,NNW,347,1.0,13.0,88,0.00,,,0.00,meteohub,2013-02-22 07:10:00,
2013-02-22 02:11:00,19.8,16.7,29.35,North,9,2.0,10.0,88,0.00,,,0.00,meteohub,2013-02-22 07:11:00,
2013-02-22 02:15:00,19.8,16.7,29.35,NW,319,4.0,10.0,88,0.00,,,0.00,meteohub,2013-02-22 07:15:00,
2013-02-22 02:17:00,19.8,16.7,29.35,NW,322,4.0,10.0,88,0.00,,,0.00,meteohub,2013-02-22 07:17:00,
2013-02-22 02:18:00,19.9,16.9,29.35,NNW,336,4.0,10.0,88,0.00,,,0.00,meteohub,2013-02-22 07:18:00,
2013-02-22 02:20:00,19.9,16.9,29.35,WNW,294,3.0,10.0,88,0.00,,,0.00,meteohub,2013-02-22 07:20:00,
2013-02-22 02:22:00,19.9,16.9,29.35,NW,309,4.0,9.0,88,0.00,,,0.00,meteohub,2013-02-22 07:22:00,
2013-02-22 02:23:00,20.1,17.1,29.35,NW,323,5.0,9.0,88,0.00,,,0.00,meteohub,2013-02-22 07:23:00,
2013-02-22 02:26:00,20.3,17.2,29.35,NW,316,5.0,9.0,88,0.00,,,0.00,meteohub,2013-02-22 07:26:00,
2013-02-22 02:27:00,20.5,17.4,29.35,NNW,334,3.0,9.0,88,0.00,,,0.00,meteohub,2013-02-22 07:27:00,
2013-02-22 02:28:00,20.5,17.4,29.35,WNW,300,3.0,9.0,88,0.00,,,0.00,meteohub,2013-02-22 07:28:00,
2013-02-22 02:29:00,20.5,17.4,29.35,WNW,302,4.0,9.0,88,0.00,,,0.00,meteohub,2013-02-22 07:29:00,
2013-02-22 02:33:00,20.7,17.4,29.35,NW,321,2.0,8.0,87,0.00,,,0.00,meteohub,2013-02-22 07:33:00,
2013-02-22 02:34:00,20.7,17.4,29.35,WNW,292,6.0,8.0,87,0.00,,,0.00,meteohub,2013-02-22 07:34:00,
2013-02-22 02:35:00,20.7,17.4,29.35,West,278,2.0,8.0,87,0.00,,,0.00,meteohub,2013-02-22 07:35:00,
2013-02-22 02:36:00,20.8,17.6,29.35,NW,312,4.0,8.0,87,0.00,,,0.00,meteohub,2013-02-22 07:36:00,
2013-02-22 02:38:00,21.0,17.8,29.35,NW,321,2.0,8.0,87,0.00,,,0.00,meteohub,2013-02-22 07:38:00,
2013-02-22 02:39:00,21.0,17.8,29.35,NW,321,2.0,8.0,87,0.00,,,0.00,meteohub,2013-02-22 07:39:00,
2013-02-22 02:40:00,21.0,17.8,29.35,NW,321,1.0,8.0,87,0.00,,,0.00,meteohub,2013-02-22 07:40:00,
2013-02-22 02:41:00,21.0,17.8,29.35,NW,321,1.0,9.0,87,0.00,,,0.00,meteohub,2013-02-22 07:41:00,
2013-02-22 02:45:00,21.2,18.0,29.35,WNW,288,5.0,9.0,87,0.00,,,0.00,meteohub,2013-02-22 07:45:00,
2013-02-22 02:46:00,21.4,17.8,29.35,WNW,284,3.0,9.0,86,0.00,,,0.00,meteohub,2013-02-22 07:46:00,
2013-02-22 02:50:00,21.6,18.0,29.35,NW,316,5.0,9.0,86,0.00,,,0.00,meteohub,2013-02-22 07:50:00,
2013-02-22 02:51:00,21.6,18.0,29.35,West,273,5.0,10.0,86,0.00,,,0.00,meteohub,2013-02-22 07:51:00,
2013-02-22 02:52:00,21.6,18.0,29.35,NNW,327,7.0,10.0,86,0.00,,,0.00,meteohub,2013-02-22 07:52:00,
2013-02-22 02:56:00,21.6,18.0,29.35,NW,317,6.0,10.0,86,0.00,,,0.00,meteohub,2013-02-22 07:56:00,
2013-02-22 02:57:00,21.6,18.0,29.35,NW,312,4.0,10.0,86,0.00,,,0.00,meteohub,2013-02-22 07:57:00,
2013-02-22 02:59:00,21.6,18.0,29.35,WNW,299,2.0,10.0,86,0.00,,,0.00,meteohub,2013-02-22 07:59:00,
2013-02-22 03:01:00,21.6,18.0,29.35,NW,309,9.0,10.0,86,0.00,,,0.00,meteohub,2013-02-22 08:01:00,
2013-02-22 03:02:00,21.6,18.0,29.35,WNW,303,6.0,10.0,86,0.00,,,0.00,meteohub,2013-02-22 08:02:00,
2013-02-22 03:04:00,21.6,18.0,29.35,WNW,296,3.0,10.0,86,0.00,,,0.00,meteohub,2013-02-22 08:04:00,
2013-02-22 03:07:00,21.6,18.0,29.35,West,279,5.0,9.0,86,0.00,,,0.00,meteohub,2013-02-22 08:07:00,
2013-02-22 03:08:00,21.6,18.0,29.35,West,271,3.0,9.0,86,0.00,,,0.00,meteohub,2013-02-22 08:08:00,
2013-02-22 03:10:00,21.4,17.8,29.35,West,279,3.0,9.0,86,0.00,,,0.00,meteohub,2013-02-22 08:10:00,
2013-02-22 03:12:00,21.2,17.6,29.35,WNW,286,3.0,9.0,86,0.00,,,0.00,meteohub,2013-02-22 08:12:00,
2013-02-22 03:13:00,21.2,17.6,29.35,West,280,1.0,9.0,86,0.00,,,0.00,meteohub,2013-02-22 08:13:00,
2013-02-22 03:15:00,21.0,17.4,29.35,West,281,3.0,9.0,86,0.00,,,0.00,meteohub,2013-02-22 08:15:00,
2013-02-22 03:17:00,21.0,17.8,29.35,West,281,2.0,9.0,87,0.00,,,0.00,meteohub,2013-02-22 08:17:00,
2013-02-22 03:19:00,21.0,17.4,29.35,West,275,5.0,9.0,86,0.00,,,0.00,meteohub,2013-02-22 08:19:00,
2013-02-22 03:20:00,21.0,17.8,29.35,WNW,295,6.0,9.0,87,0.00,,,0.00,meteohub,2013-02-22 08:20:00,
2013-02-22 03:22:00,21.0,17.8,29.35,WSW,258,4.0,9.0,87,0.00,,,0.00,meteohub,2013-02-22 08:22:00,
2013-02-22 03:24:00,21.2,17.6,29.35,WNW,283,3.0,9.0,86,0.00,,,0.00,meteohub,2013-02-22 08:24:00,
2013-02-22 03:25:00,21.2,17.6,29.35,WNW,284,2.0,9.0,86,0.00,,,0.00,meteohub,2013-02-22 08:25:00,
2013-02-22 03:26:00,21.2,17.6,29.35,NW,324,6.0,6.0,86,0.00,,,0.00,meteohub,2013-02-22 08:26:00,
2013-02-22 03:27:00,21.2,17.6,29.35,NW,305,4.0,6.0,86,0.00,,,0.00,meteohub,2013-02-22 08:27:00,
2013-02-22 03:29:00,21.4,17.8,29.35,West,265,3.0,6.0,86,0.00,,,0.00,meteohub,2013-02-22 08:29:00,
2013-02-22 03:32:00,21.4,17.8,29.35,NW,313,2.0,6.0,86,0.00,,,0.00,meteohub,2013-02-22 08:32:00,
2013-02-22 03:33:00,21.4,17.8,29.35,NW,313,3.0,6.0,86,0.00,,,0.00,meteohub,2013-02-22 08:33:00,
2013-02-22 03:35:00,21.4,17.8,29.35,WNW,300,1.0,6.0,86,0.00,,,0.00,meteohub,2013-02-22 08:35:00,
2013-02-22 03:38:00,21.4,17.8,29.35,WNW,292,4.0,6.0,86,0.00,,,0.00,meteohub,2013-02-22 08:38:00,
2013-02-22 03:39:00,21.4,17.8,29.35,West,275,3.0,6.0,86,0.00,,,0.00,meteohub,2013-02-22 08:39:00,
2013-02-22 03:40:00,21.4,17.8,29.35,West,275,5.0,6.0,86,0.00,,,0.00,meteohub,2013-02-22 08:40:00,
2013-02-22 03:41:00,21.4,17.8,29.35,NW,321,5.0,8.0,86,0.00,,,0.00,meteohub,2013-02-22 08:41:00,
2013-02-22 03:45:00,21.4,17.8,29.35,NW,315,2.0,8.0,86,0.00,,,0.00,meteohub,2013-02-22 08:45:00,
2013-02-22 03:46:00,21.4,17.8,29.34,WNW,288,4.0,8.0,86,0.00,,,0.00,meteohub,2013-02-22 08:46:00,
2013-02-22 03:47:00,21.4,17.8,29.34,WNW,289,4.0,8.0,86,0.00,,,0.00,meteohub,2013-02-22 08:47:00,
2013-02-22 03:50:00,21.4,17.6,29.34,WNW,289,2.0,8.0,85,0.00,,,0.00,meteohub,2013-02-22 08:50:00,
2013-02-22 03:52:00,21.0,17.2,29.34,NW,305,1.0,8.0,85,0.00,,,0.00,meteohub,2013-02-22 08:52:00,
2013-02-22 03:55:00,20.7,16.9,29.35,NNE,25,2.0,8.0,85,0.00,,,0.00,meteohub,2013-02-22 08:55:00,
2013-02-22 03:57:00,20.7,17.1,29.35,NNE,19,2.0,8.0,86,0.00,,,0.00,meteohub,2013-02-22 08:57:00,
2013-02-22 03:58:00,20.7,17.1,29.35,NNE,19,0.0,8.0,86,0.00,,,0.00,meteohub,2013-02-22 08:58:00,
2013-02-22 04:00:00,20.7,17.1,29.35,NNE,18,0.0,8.0,86,0.00,,,0.00,meteohub,2013-02-22 09:00:00,
2013-02-22 04:01:00,20.7,17.1,29.35,NNE,22,7.0,7.0,86,0.00,,,0.00,meteohub,2013-02-22 09:01:00,
2013-02-22 04:02:00,20.8,17.2,29.35,South,175,2.0,5.0,86,0.00,,,0.00,meteohub,2013-02-22 09:02:00,
2013-02-22 04:04:00,20.8,17.2,29.34,NE,40,3.0,5.0,86,0.00,,,0.00,meteohub,2013-02-22 09:04:00,
2013-02-22 04:07:00,21.2,17.6,29.34,NE,38,4.0,7.0,86,0.00,,,0.00,meteohub,2013-02-22 09:07:00,
2013-02-22 04:08:00,21.4,17.8,29.34,NE,44,0.0,7.0,86,0.00,,,0.00,meteohub,2013-02-22 09:08:00,
2013-02-22 04:09:00,21.4,17.8,29.34,NE,43,0.0,7.0,86,0.00,,,0.00,meteohub,2013-02-22 09:09:00,
2013-02-22 04:12:00,21.4,17.6,29.34,NE,43,0.0,7.0,85,0.00,,,0.00,meteohub,2013-02-22 09:12:00,
2013-02-22 04:14:00,21.4,17.6,29.34,NE,43,0.0,7.0,85,0.00,,,0.00,meteohub,2013-02-22 09:14:00,
2013-02-22 04:17:00,21.4,17.6,29.34,NE,45,3.0,7.0,85,0.00,,,0.00,meteohub,2013-02-22 09:17:00,
2013-02-22 04:19:00,21.0,16.9,29.34,NE,46,0.0,7.0,84,0.00,,,0.00,meteohub,2013-02-22 09:19:00,
2013-02-22 04:21:00,20.8,16.7,29.35,NE,46,0.0,5.0,84,0.00,,,0.00,meteohub,2013-02-22 09:21:00,
2013-02-22 04:22:00,20.8,16.7,29.35,NE,46,0.0,5.0,84,0.00,,,0.00,meteohub,2013-02-22 09:22:00,
2013-02-22 04:24:00,20.7,16.5,29.35,NE,42,2.0,5.0,84,0.00,,,0.00,meteohub,2013-02-22 09:24:00,
2013-02-22 04:25:00,20.7,16.5,29.35,NE,40,3.0,5.0,84,0.00,,,0.00,meteohub,2013-02-22 09:25:00,
2013-02-22 04:27:00,20.5,16.7,29.34,NE,40,2.0,4.0,85,0.00,,,0.00,meteohub,2013-02-22 09:27:00,
2013-02-22 04:28:00,20.3,16.5,29.34,NE,40,0.0,4.0,85,0.00,,,0.00,meteohub,2013-02-22 09:28:00,
2013-02-22 04:30:00,20.5,16.9,29.34,NE,40,1.0,4.0,86,0.00,,,0.00,meteohub,2013-02-22 09:30:00,
2013-02-22 04:32:00,20.7,17.4,29.34,NE,39,1.0,4.0,87,0.00,,,0.00,meteohub,2013-02-22 09:32:00,
2013-02-22 04:34:00,20.5,16.9,29.34,NE,40,1.0,4.0,86,0.00,,,0.00,meteohub,2013-02-22 09:34:00,
2013-02-22 04:36:00,20.5,16.9,29.34,South,179,4.0,5.0,86,0.00,,,0.00,meteohub,2013-02-22 09:36:00,
2013-02-22 04:38:00,20.7,17.1,29.34,South,179,2.0,5.0,86,0.00,,,0.00,meteohub,2013-02-22 09:38:00,
2013-02-22 04:39:00,20.5,16.9,29.34,South,179,0.0,5.0,86,0.00,,,0.00,meteohub,2013-02-22 09:39:00,
2013-02-22 04:42:00,20.5,16.9,29.34,South,179,0.0,5.0,86,0.00,,,0.00,meteohub,2013-02-22 09:42:00,
2013-02-22 04:43:00,20.5,16.9,29.34,South,179,0.0,5.0,86,0.00,,,0.00,meteohub,2013-02-22 09:43:00,
2013-02-22 04:46:00,20.5,16.9,29.34,South,179,0.0,5.0,86,0.00,,,0.00,meteohub,2013-02-22 09:46:00,
2013-02-22 04:49:00,20.7,17.4,29.34,East,82,5.0,5.0,87,0.00,,,0.00,meteohub,2013-02-22 09:49:00,
2013-02-22 04:50:00,20.8,17.6,29.34,ESE,121,0.0,5.0,87,0.00,,,0.00,meteohub,2013-02-22 09:50:00,
2013-02-22 04:51:00,20.8,17.6,29.34,ESE,121,0.0,8.0,87,0.00,,,0.00,meteohub,2013-02-22 09:51:00,
2013-02-22 04:52:00,20.8,17.2,29.34,ESE,121,0.0,8.0,86,0.00,,,0.00,meteohub,2013-02-22 09:52:00,
2013-02-22 04:55:00,20.8,17.1,29.34,ESE,121,0.0,8.0,85,0.00,,,0.00,meteohub,2013-02-22 09:55:00,
2013-02-22 04:56:00,20.8,17.1,29.34,ESE,121,2.0,8.0,85,0.00,,,0.00,meteohub,2013-02-22 09:56:00,
2013-02-22 04:57:00,20.8,17.1,29.34,SE,145,2.0,8.0,85,0.00,,,0.00,meteohub,2013-02-22 09:57:00,
2013-02-22 04:58:00,20.7,16.9,29.34,SE,144,0.0,8.0,85,0.00,,,0.00,meteohub,2013-02-22 09:58:00,
2013-02-22 05:00:00,20.5,16.7,29.34,SE,145,1.0,8.0,85,0.00,,,0.00,meteohub,2013-02-22 10:00:00,
2013-02-22 05:02:00,20.3,16.5,29.34,SE,145,1.0,8.0,85,0.00,,,0.00,meteohub,2013-02-22 10:02:00,
2013-02-22 05:03:00,20.1,16.3,29.34,SE,145,0.0,8.0,85,0.00,,,0.00,meteohub,2013-02-22 10:03:00,
2013-02-22 05:04:00,20.1,16.3,29.34,SE,145,0.0,8.0,85,0.00,,,0.00,meteohub,2013-02-22 10:04:00,
2013-02-22 05:06:00,20.1,16.7,29.34,SE,145,0.0,4.0,86,0.00,,,0.00,meteohub,2013-02-22 10:06:00,
2013-02-22 05:07:00,19.9,16.5,29.34,SE,145,0.0,4.0,86,0.00,,,0.00,meteohub,2013-02-22 10:07:00,
2013-02-22 05:08:00,19.9,16.5,29.34,SE,142,2.0,4.0,86,0.00,,,0.00,meteohub,2013-02-22 10:08:00,
2013-02-22 05:11:00,19.9,16.5,29.34,SE,144,2.0,4.0,86,0.00,,,0.00,meteohub,2013-02-22 10:11:00,
2013-02-22 05:12:00,19.9,16.5,29.34,South,185,2.0,4.0,86,0.00,,,0.00,meteohub,2013-02-22 10:12:00,
2013-02-22 05:13:00,19.8,16.3,29.34,South,185,0.0,4.0,86,0.00,,,0.00,meteohub,2013-02-22 10:13:00,
2013-02-22 05:16:00,19.8,16.3,29.34,South,185,0.0,4.0,86,0.00,,,0.00,meteohub,2013-02-22 10:16:00,
2013-02-22 05:18:00,19.6,16.2,29.34,South,185,2.0,4.0,86,0.00,,,0.00,meteohub,2013-02-22 10:18:00,
2013-02-22 05:19:00,19.6,16.2,29.34,South,185,0.0,4.0,86,0.00,,,0.00,meteohub,2013-02-22 10:19:00,
2013-02-22 05:21:00,19.4,18.0,29.35,South,185,0.0,4.0,94,0.00,,,0.00,meteohub,2013-02-22 10:21:00,
2013-02-22 05:23:00,19.2,15.8,29.35,South,185,1.0,4.0,86,0.00,,,0.00,meteohub,2013-02-22 10:23:00,
2013-02-22 05:24:00,19.2,16.0,29.35,South,185,2.0,4.0,87,0.00,,,0.00,meteohub,2013-02-22 10:24:00,
2013-02-22 05:27:00,19.2,16.0,29.35,South,185,1.0,4.0,87,0.00,,,0.00,meteohub,2013-02-22 10:27:00,
2013-02-22 05:29:00,19.0,15.8,29.35,South,185,0.0,4.0,87,0.00,,,0.00,meteohub,2013-02-22 10:29:00,
2013-02-22 05:31:00,19.0,15.8,29.35,South,185,1.0,3.0,87,0.00,,,0.00,meteohub,2013-02-22 10:31:00,
2013-02-22 05:32:00,19.0,15.8,29.35,South,185,0.0,3.0,87,0.00,,,0.00,meteohub,2013-02-22 10:32:00,
2013-02-22 05:33:00,19.0,15.8,29.35,South,185,0.0,3.0,87,0.00,,,0.00,meteohub,2013-02-22 10:33:00,
2013-02-22 05:36:00,19.4,16.5,29.35,South,186,1.0,4.0,88,0.00,,,0.00,meteohub,2013-02-22 10:36:00,
2013-02-22 05:37:00,19.6,16.5,29.35,South,186,0.0,4.0,88,0.00,,,0.00,meteohub,2013-02-22 10:37:00,
2013-02-22 05:39:00,19.4,16.2,29.35,South,186,1.0,4.0,87,0.00,,,0.00,meteohub,2013-02-22 10:39:00,
2013-02-22 05:40:00,19.2,16.0,29.35,South,186,0.0,4.0,87,0.00,,,0.00,meteohub,2013-02-22 10:40:00,
2013-02-22 05:42:00,19.0,15.6,29.35,South,186,2.0,4.0,86,0.00,,,0.00,meteohub,2013-02-22 10:42:00,
2013-02-22 05:43:00,18.9,15.4,29.35,South,186,1.0,4.0,86,0.00,,,0.00,meteohub,2013-02-22 10:43:00,
2013-02-22 05:45:00,18.9,16.0,29.36,South,186,1.0,4.0,88,0.00,,,0.00,meteohub,2013-02-22 10:45:00,
2013-02-22 05:46:00,18.9,16.0,29.36,East,88,5.0,5.0,88,0.00,,,0.00,meteohub,2013-02-22 10:46:00,
2013-02-22 05:49:00,18.9,16.0,29.35,East,87,0.0,4.0,88,0.00,,,0.00,meteohub,2013-02-22 10:49:00,
2013-02-22 05:51:00,18.9,16.0,29.35,East,89,1.0,5.0,88,0.00,,,0.00,meteohub,2013-02-22 10:51:00,
2013-02-22 05:52:00,18.9,16.0,29.35,East,89,1.0,5.0,88,0.00,,,0.00,meteohub,2013-02-22 10:52:00,
2013-02-22 05:54:00,18.7,15.4,29.35,East,86,0.0,5.0,87,0.00,,,0.00,meteohub,2013-02-22 10:54:00,
2013-02-22 05:55:00,18.7,15.4,29.35,East,86,0.0,5.0,87,0.00,,,0.00,meteohub,2013-02-22 10:55:00,
2013-02-22 05:57:00,18.7,15.4,29.35,East,86,0.0,5.0,87,0.00,,,0.00,meteohub,2013-02-22 10:57:00,
2013-02-22 05:58:00,18.7,15.4,29.35,East,86,0.0,5.0,87,0.00,,,0.00,meteohub,2013-02-22 10:58:00,
2013-02-22 06:00:00,18.7,15.4,29.36,East,90,3.0,5.0,87,0.00,,,0.00,meteohub,2013-02-22 11:00:00,
2013-02-22 06:01:00,18.9,16.0,29.36,East,90,1.0,5.0,88,0.00,,,0.00,meteohub,2013-02-22 11:01:00,
2013-02-22 06:03:00,18.9,16.0,29.36,East,90,0.0,5.0,88,0.00,,,0.00,meteohub,2013-02-22 11:03:00,
2013-02-22 06:04:00,18.9,16.0,29.36,East,90,0.0,5.0,88,0.00,,,0.00,meteohub,2013-02-22 11:04:00,
2013-02-22 06:05:00,18.9,15.6,29.36,East,90,0.0,5.0,87,0.00,,,0.00,meteohub,2013-02-22 11:05:00,
2013-02-22 06:06:00,18.9,15.6,29.36,East,90,0.0,5.0,87,0.00,,,0.00,meteohub,2013-02-22 11:06:00,
2013-02-22 06:09:00,18.9,16.0,29.36,East,86,2.0,5.0,88,0.00,,,0.00,meteohub,2013-02-22 11:09:00,
2013-02-22 06:10:00,18.9,16.0,29.36,East,86,0.0,5.0,88,0.00,,,0.00,meteohub,2013-02-22 11:10:00,
2013-02-22 06:11:00,18.9,15.6,29.36,East,86,0.0,5.0,87,0.00,,,0.00,meteohub,2013-02-22 11:11:00,
2013-02-22 06:12:00,18.9,15.6,29.36,East,86,0.0,5.0,87,0.00,,,0.00,meteohub,2013-02-22 11:12:00,
2013-02-22 06:14:00,18.9,15.6,29.36,East,87,0.0,5.0,87,0.00,,,0.00,meteohub,2013-02-22 11:14:00,
2013-02-22 06:17:00,18.7,15.4,29.37,East,86,0.0,5.0,87,0.00,,,0.00,meteohub,2013-02-22 11:17:00,
2013-02-22 06:18:00,18.7,15.4,29.37,East,86,0.0,5.0,87,0.00,,,0.00,meteohub,2013-02-22 11:18:00,
2013-02-22 06:20:00,18.3,15.1,29.37,East,86,2.0,5.0,87,0.00,,,0.00,meteohub,2013-02-22 11:20:00,
2013-02-22 06:22:00,18.3,15.1,29.37,ENE,78,2.0,5.0,87,0.00,,,0.00,meteohub,2013-02-22 11:22:00,
2013-02-22 06:23:00,18.3,15.1,29.37,ENE,74,3.0,5.0,87,0.00,,,0.00,meteohub,2013-02-22 11:23:00,
2013-02-22 06:26:00,18.7,15.8,29.37,East,86,0.0,5.0,88,0.00,,,0.00,meteohub,2013-02-22 11:26:00,
2013-02-22 06:27:00,18.7,15.8,29.38,East,86,0.0,5.0,88,0.00,,,0.00,meteohub,2013-02-22 11:27:00,
2013-02-22 06:28:00,18.9,16.2,29.38,East,86,0.0,5.0,89,0.00,,,0.00,meteohub,2013-02-22 11:28:00,
2013-02-22 06:31:00,19.0,16.2,29.39,East,86,0.0,5.0,88,0.00,,,0.00,meteohub,2013-02-22 11:31:00,
2013-02-22 06:32:00,18.9,16.0,29.39,East,86,0.0,5.0,88,0.00,,,0.00,meteohub,2013-02-22 11:32:00,
2013-02-22 06:33:00,18.7,15.4,29.39,East,86,0.0,5.0,87,0.00,,,0.00,meteohub,2013-02-22 11:33:00,
2013-02-22 06:37:00,18.3,14.9,29.39,NNW,342,2.0,5.0,86,0.00,,,0.00,meteohub,2013-02-22 11:37:00,
2013-02-22 06:38:00,18.1,14.9,29.39,NNW,344,2.0,5.0,87,0.00,,,0.00,meteohub,2013-02-22 11:38:00,
2013-02-22 06:39:00,18.1,14.9,29.39,NNW,344,0.0,5.0,87,0.00,,,0.00,meteohub,2013-02-22 11:39:00,
2013-02-22 06:40:00,18.1,15.3,29.38,NNW,344,0.0,5.0,88,0.00,,,0.00,meteohub,2013-02-22 11:40:00,
2013-02-22 06:42:00,18.1,15.3,29.39,NNW,344,0.0,5.0,88,0.00,,,0.00,meteohub,2013-02-22 11:42:00,
2013-02-22 06:44:00,18.3,15.6,29.39,NNW,344,1.0,5.0,89,0.00,,,0.00,meteohub,2013-02-22 11:44:00,
2013-02-22 06:45:00,18.3,15.6,29.39,NNW,344,0.0,5.0,89,0.00,,,0.00,meteohub,2013-02-22 11:45:00,
2013-02-22 06:47:00,18.3,15.6,29.39,NNW,344,2.0,5.0,89,0.00,,,0.00,meteohub,2013-02-22 11:47:00,
2013-02-22 06:49:00,18.3,15.4,29.39,West,281,1.0,5.0,88,0.00,,,0.00,meteohub,2013-02-22 11:49:00,
2013-02-22 06:50:00,18.3,15.4,29.39,West,281,0.0,5.0,88,0.00,,,0.00,meteohub,2013-02-22 11:50:00,
2013-02-22 06:51:00,18.1,15.3,29.39,ENE,64,4.0,5.0,88,0.00,,,0.00,meteohub,2013-02-22 11:51:00,
2013-02-22 06:52:00,18.1,15.3,29.39,NE,40,1.0,5.0,88,0.00,,,0.00,meteohub,2013-02-22 11:52:00,
2013-02-22 06:56:00,18.3,15.6,29.39,NE,40,1.0,4.0,89,0.00,,,0.00,meteohub,2013-02-22 11:56:00,
2013-02-22 06:57:00,18.3,15.6,29.39,NE,40,1.0,4.0,89,0.00,,,0.00,meteohub,2013-02-22 11:57:00,
2013-02-22 06:59:00,18.3,15.6,29.39,NE,40,0.0,4.0,89,0.00,,,0.00,meteohub,2013-02-22 11:59:00,
2013-02-22 07:02:00,18.1,15.3,29.40,NE,40,0.0,4.0,88,0.00,,,0.00,meteohub,2013-02-22 12:02:00,
2013-02-22 07:03:00,18.1,15.3,29.40,NE,40,0.0,4.0,88,0.00,,,0.00,meteohub,2013-02-22 12:03:00,
2013-02-22 07:04:00,18.1,15.3,29.40,NE,40,0.0,4.0,88,0.00,,,0.00,meteohub,2013-02-22 12:04:00,
2013-02-22 07:07:00,18.0,15.1,29.40,NE,40,0.0,4.0,88,0.00,,,0.00,meteohub,2013-02-22 12:07:00,
2013-02-22 07:08:00,18.0,15.1,29.40,NE,40,1.0,4.0,88,0.00,,,0.00,meteohub,2013-02-22 12:08:00,
2013-02-22 07:10:00,18.0,15.1,29.41,NE,40,2.0,4.0,88,0.00,,,0.00,meteohub,2013-02-22 12:10:00,
2013-02-22 07:14:00,18.0,15.1,29.41,NE,40,2.0,3.0,88,0.00,,,0.00,meteohub,2013-02-22 12:14:00,
2013-02-22 07:15:00,18.0,15.3,29.41,NE,40,0.0,3.0,89,0.00,,,0.00,meteohub,2013-02-22 12:15:00,
2013-02-22 07:19:00,18.0,15.3,29.42,NE,40,0.0,3.0,89,0.00,,,0.00,meteohub,2013-02-22 12:19:00,
2013-02-22 07:21:00,18.0,15.3,29.42,NE,40,0.0,3.0,89,0.00,,,0.00,meteohub,2013-02-22 12:21:00,
2013-02-22 07:22:00,18.0,15.3,29.42,NE,40,0.0,3.0,89,0.00,,,0.00,meteohub,2013-02-22 12:22:00,
2013-02-22 07:25:00,18.1,15.4,29.42,NE,40,0.0,3.0,89,0.00,,,0.00,meteohub,2013-02-22 12:25:00,
2013-02-22 07:26:00,18.1,15.4,29.42,NE,40,0.0,3.0,89,0.00,,,0.00,meteohub,2013-02-22 12:26:00,
2013-02-22 07:27:00,18.1,15.4,29.42,NE,40,0.0,3.0,89,0.00,,,0.00,meteohub,2013-02-22 12:27:00,
2013-02-22 07:31:00,18.1,15.4,29.42,NE,40,0.0,2.0,89,0.00,,,0.00,meteohub,2013-02-22 12:31:00,
2013-02-22 07:32:00,18.1,15.4,29.42,NE,40,0.0,2.0,89,0.00,,,0.00,meteohub,2013-02-22 12:32:00,
2013-02-22 07:36:00,18.3,15.8,29.42,NE,40,2.0,2.0,90,0.00,,,0.00,meteohub,2013-02-22 12:36:00,
2013-02-22 07:37:00,18.7,16.2,29.42,NE,40,0.0,2.0,90,0.00,,,0.00,meteohub,2013-02-22 12:37:00,
2013-02-22 07:38:00,18.7,16.2,29.42,NE,40,0.0,2.0,90,0.00,,,0.00,meteohub,2013-02-22 12:38:00,
2013-02-22 07:39:00,18.9,16.3,29.42,NE,40,0.0,2.0,90,0.00,,,0.00,meteohub,2013-02-22 12:39:00,
2013-02-22 07:41:00,19.0,16.5,29.42,NE,40,0.0,2.0,90,0.00,,,0.00,meteohub,2013-02-22 12:41:00,
2013-02-22 07:42:00,19.0,16.5,29.42,NE,40,0.0,2.0,90,0.00,,,0.00,meteohub,2013-02-22 12:42:00,
2013-02-22 07:45:00,19.2,16.5,29.42,North,355,3.0,3.0,89,0.00,,,0.00,meteohub,2013-02-22 12:45:00,
2013-02-22 07:46:00,19.2,16.5,29.42,NW,305,3.0,4.0,89,0.00,,,0.00,meteohub,2013-02-22 12:46:00,
2013-02-22 07:47:00,19.0,16.2,29.42,NW,305,3.0,4.0,88,0.00,,,0.00,meteohub,2013-02-22 12:47:00,
2013-02-22 07:49:00,18.9,15.6,29.42,NW,305,3.0,4.0,87,0.00,,,0.00,meteohub,2013-02-22 12:49:00,
2013-02-22 07:50:00,18.9,16.0,29.42,NW,305,1.0,4.0,88,0.00,,,0.00,meteohub,2013-02-22 12:50:00,
2013-02-22 07:51:00,18.9,16.0,29.42,NW,305,2.0,4.0,88,0.00,,,0.00,meteohub,2013-02-22 12:51:00,
2013-02-22 07:53:00,18.9,16.0,29.42,NW,305,0.0,4.0,88,0.00,,,0.00,meteohub,2013-02-22 12:53:00,
2013-02-22 07:54:00,18.9,16.2,29.42,NW,305,0.0,4.0,89,0.00,,,0.00,meteohub,2013-02-22 12:54:00,
2013-02-22 07:55:00,19.0,16.3,29.42,NW,305,0.0,4.0,89,0.00,,,0.00,meteohub,2013-02-22 12:55:00,
2013-02-22 07:56:00,19.0,16.3,29.41,NW,305,0.0,4.0,89,0.00,,,0.00,meteohub,2013-02-22 12:56:00,
2013-02-22 07:58:00,19.2,16.5,29.42,NW,305,0.0,4.0,89,0.00,,,0.00,meteohub,2013-02-22 12:58:00,
2013-02-22 08:00:00,19.4,16.7,29.42,NW,305,0.0,4.0,89,0.00,,,0.00,meteohub,2013-02-22 13:00:00,
2013-02-22 08:01:00,19.6,16.9,29.42,NW,305,1.0,4.0,89,0.00,,,0.00,meteohub,2013-02-22 13:01:00,
2013-02-22 08:03:00,19.8,17.2,29.42,NW,305,0.0,4.0,90,0.00,,,0.00,meteohub,2013-02-22 13:03:00,
2013-02-22 08:05:00,19.9,17.2,29.42,NW,305,0.0,2.0,89,0.00,,,0.00,meteohub,2013-02-22 13:05:00,
2013-02-22 08:06:00,20.1,17.4,29.41,NW,305,2.0,2.0,89,0.00,,,0.00,meteohub,2013-02-22 13:06:00,
2013-02-22 08:08:00,20.1,17.4,29.41,NW,305,0.0,2.0,89,0.00,,,0.00,meteohub,2013-02-22 13:08:00,
2013-02-22 08:09:00,20.3,17.6,29.41,NW,305,0.0,2.0,89,0.00,,,0.00,meteohub,2013-02-22 13:09:00,
2013-02-22 08:11:00,20.5,17.8,29.41,NW,307,0.0,2.0,89,0.00,,,0.00,meteohub,2013-02-22 13:11:00,
2013-02-22 08:12:00,20.5,17.8,29.41,NW,307,0.0,2.0,89,0.00,,,0.00,meteohub,2013-02-22 13:12:00,
2013-02-22 08:13:00,20.7,18.0,29.41,NW,307,0.0,2.0,89,0.00,,,0.00,meteohub,2013-02-22 13:13:00,
2013-02-22 08:15:00,20.8,18.1,29.41,NW,307,0.0,2.0,89,0.00,,,0.00,meteohub,2013-02-22 13:15:00,
2013-02-22 08:17:00,20.8,17.8,29.41,NW,307,0.0,2.0,88,0.00,,,0.00,meteohub,2013-02-22 13:17:00,
2013-02-22 08:18:00,20.8,17.8,29.41,NW,307,0.0,2.0,88,0.00,,,0.00,meteohub,2013-02-22 13:18:00,
2013-02-22 08:21:00,21.0,18.0,29.41,NW,307,0.0,2.0,88,0.00,,,0.00,meteohub,2013-02-22 13:21:00,
2013-02-22 08:22:00,21.0,18.0,29.41,NW,307,0.0,2.0,88,0.00,,,0.00,meteohub,2013-02-22 13:22:00,
2013-02-22 08:24:00,21.2,18.1,29.41,NW,307,0.0,2.0,88,0.00,,,0.00,meteohub,2013-02-22 13:24:00,
2013-02-22 08:27:00,21.6,18.9,29.41,NW,307,0.0,2.0,89,0.00,,,0.00,meteohub,2013-02-22 13:27:00,
2013-02-22 08:28:00,21.6,18.9,29.41,NW,307,0.0,2.0,89,0.00,,,0.00,meteohub,2013-02-22 13:28:00,
2013-02-22 08:30:00,21.7,19.0,29.41,NW,307,0.0,2.0,89,0.00,,,0.00,meteohub,2013-02-22 13:30:00,
2013-02-22 08:31:00,21.7,18.7,29.41,NW,307,0.0,2.0,88,0.00,,,0.00,meteohub,2013-02-22 13:31:00,
2013-02-22 08:32:00,21.7,18.7,29.41,NW,307,2.0,2.0,88,0.00,,,0.00,meteohub,2013-02-22 13:32:00,
2013-02-22 08:33:00,21.9,18.9,29.41,SW,224,0.0,2.0,88,0.00,,,0.00,meteohub,2013-02-22 13:33:00,
2013-02-22 08:35:00,21.9,18.9,29.41,SW,224,0.0,2.0,88,0.00,,,0.00,meteohub,2013-02-22 13:35:00,
2013-02-22 08:36:00,22.1,19.0,29.41,SW,224,1.0,3.0,88,0.00,,,0.00,meteohub,2013-02-22 13:36:00,
2013-02-22 08:38:00,22.1,18.9,29.41,SW,224,0.0,3.0,87,0.00,,,0.00,meteohub,2013-02-22 13:38:00,
2013-02-22 08:40:00,22.1,18.9,29.41,SW,224,0.0,3.0,87,0.00,,,0.00,meteohub,2013-02-22 13:40:00,
2013-02-22 08:41:00,22.1,18.9,29.41,SW,224,0.0,3.0,87,0.00,,,0.00,meteohub,2013-02-22 13:41:00,
2013-02-22 08:42:00,22.3,19.2,29.41,SW,224,1.0,3.0,88,0.00,,,0.00,meteohub,2013-02-22 13:42:00,
2013-02-22 08:43:00,22.3,19.0,29.41,SW,224,2.0,3.0,87,0.00,,,0.00,meteohub,2013-02-22 13:43:00,
2013-02-22 08:47:00,22.3,19.0,29.41,SW,224,1.0,3.0,87,0.00,,,0.00,meteohub,2013-02-22 13:47:00,
2013-02-22 08:48:00,22.3,19.0,29.41,SW,224,0.0,3.0,87,0.00,,,0.00,meteohub,2013-02-22 13:48:00,
2013-02-22 08:49:00,22.3,19.0,29.41,SW,224,0.0,3.0,87,0.00,,,0.00,meteohub,2013-02-22 13:49:00,
2013-02-22 08:50:00,22.3,19.0,29.41,SW,224,0.0,3.0,87,0.00,,,0.00,meteohub,2013-02-22 13:50:00,
2013-02-22 08:53:00,22.5,19.4,29.41,SSW,193,1.0,3.0,88,0.00,,,0.00,meteohub,2013-02-22 13:53:00,
2013-02-22 08:54:00,22.5,19.2,29.41,SSW,193,2.0,3.0,87,0.00,,,0.00,meteohub,2013-02-22 13:54:00,
2013-02-22 08:55:00,22.5,19.2,29.41,SSW,193,0.0,3.0,87,0.00,,,0.00,meteohub,2013-02-22 13:55:00,
2013-02-22 08:58:00,22.5,19.2,29.41,SSW,193,2.0,5.0,87,0.00,,,0.00,meteohub,2013-02-22 13:58:00,
2013-02-22 08:59:00,22.5,19.2,29.41,SSW,193,0.0,5.0,87,0.00,,,0.00,meteohub,2013-02-22 13:59:00,
2013-02-22 09:01:00,22.5,19.2,29.41,SSW,193,0.0,5.0,87,0.00,,,0.00,meteohub,2013-02-22 14:01:00,
2013-02-22 09:04:00,22.6,19.4,29.41,SSW,193,1.0,5.0,87,0.00,,,0.00,meteohub,2013-02-22 14:04:00,
2013-02-22 09:05:00,22.6,19.4,29.41,SSW,193,0.0,5.0,87,0.00,,,0.00,meteohub,2013-02-22 14:05:00,
2013-02-22 09:06:00,22.6,19.4,29.41,SSW,193,0.0,5.0,87,0.00,,,0.00,meteohub,2013-02-22 14:06:00,
2013-02-22 09:08:00,22.8,19.6,29.40,SSW,193,0.0,5.0,87,0.00,,,0.00,meteohub,2013-02-22 14:08:00,
2013-02-22 09:10:00,22.8,19.6,29.40,SSW,193,0.0,5.0,87,0.00,,,0.00,meteohub,2013-02-22 14:10:00,
2013-02-22 09:13:00,23.0,19.8,29.40,SSW,193,0.0,3.0,87,0.00,,,0.00,meteohub,2013-02-22 14:13:00,
2013-02-22 09:14:00,23.0,19.4,29.41,SSW,193,1.0,3.0,86,0.00,,,0.00,meteohub,2013-02-22 14:14:00,
2013-02-22 09:16:00,23.2,19.9,29.40,South,188,0.0,3.0,87,0.00,,,0.00,meteohub,2013-02-22 14:16:00,
2013-02-22 09:18:00,23.4,20.1,29.40,South,188,0.0,3.0,87,0.00,,,0.00,meteohub,2013-02-22 14:18:00,
2013-02-22 09:20:00,23.4,20.1,29.40,South,188,0.0,3.0,87,0.00,,,0.00,meteohub,2013-02-22 14:20:00,
2013-02-22 09:21:00,23.5,20.3,29.40,South,188,0.0,3.0,87,0.00,,,0.00,meteohub,2013-02-22 14:21:00,
2013-02-22 09:23:00,23.5,20.3,29.40,South,188,0.0,3.0,87,0.00,,,0.00,meteohub,2013-02-22 14:23:00,
2013-02-22 09:25:00,23.5,19.9,29.40,South,188,1.0,3.0,86,0.00,,,0.00,meteohub,2013-02-22 14:25:00,
2013-02-22 09:27:00,23.5,19.8,29.40,South,188,0.0,3.0,85,0.00,,,0.00,meteohub,2013-02-22 14:27:00,
2013-02-22 09:29:00,23.5,19.9,29.40,South,188,0.0,3.0,86,0.00,,,0.00,meteohub,2013-02-22 14:29:00,
2013-02-22 09:30:00,23.7,20.1,29.40,South,188,0.0,3.0,86,0.00,,,0.00,meteohub,2013-02-22 14:30:00,
2013-02-22 09:32:00,23.7,20.1,29.40,South,188,1.0,3.0,86,0.00,,,0.00,meteohub,2013-02-22 14:32:00,
2013-02-22 09:34:00,23.7,19.9,29.40,South,189,2.0,3.0,85,0.00,,,0.00,meteohub,2013-02-22 14:34:00,
2013-02-22 09:35:00,23.7,19.9,29.40,South,189,2.0,3.0,85,0.00,,,0.00,meteohub,2013-02-22 14:35:00,
2013-02-22 09:37:00,23.7,19.6,29.40,South,182,0.0,3.0,84,0.00,,,0.00,meteohub,2013-02-22 14:37:00,
2013-02-22 09:38:00,23.7,19.6,29.40,South,182,0.0,3.0,84,0.00,,,0.00,meteohub,2013-02-22 14:38:00,
2013-02-22 09:41:00,23.5,19.4,29.40,South,182,0.0,3.0,84,0.00,,,0.00,meteohub,2013-02-22 14:41:00,
2013-02-22 09:43:00,23.7,19.9,29.40,South,182,0.0,3.0,85,0.00,,,0.00,meteohub,2013-02-22 14:43:00,
2013-02-22 09:44:00,23.9,20.3,29.40,South,182,0.0,3.0,86,0.00,,,0.00,meteohub,2013-02-22 14:44:00,
2013-02-22 09:47:00,24.3,20.5,29.40,South,182,3.0,3.0,85,0.00,,,0.00,meteohub,2013-02-22 14:47:00,
2013-02-22 09:48:00,24.3,20.1,29.40,South,182,3.0,3.0,84,0.00,,,0.00,meteohub,2013-02-22 14:48:00,
2013-02-22 09:49:00,24.3,20.1,29.40,South,182,1.0,2.0,84,0.00,,,0.00,meteohub,2013-02-22 14:49:00,
2013-02-22 09:51:00,24.1,19.8,29.40,South,182,0.0,4.0,83,0.00,,,0.00,meteohub,2013-02-22 14:51:00,
2013-02-22 09:52:00,24.1,19.9,29.40,South,182,2.0,4.0,84,0.00,,,0.00,meteohub,2013-02-22 14:52:00,
2013-02-22 09:54:00,24.3,20.1,29.40,South,181,0.0,4.0,84,0.00,,,0.00,meteohub,2013-02-22 14:54:00,
2013-02-22 09:56:00,24.4,20.3,29.40,South,181,0.0,4.0,84,0.00,,,0.00,meteohub,2013-02-22 14:56:00,
2013-02-22 09:57:00,24.4,20.3,29.40,South,181,0.0,4.0,84,0.00,,,0.00,meteohub,2013-02-22 14:57:00,
2013-02-22 09:58:00,24.4,20.3,29.40,South,182,0.0,4.0,84,0.00,,,0.00,meteohub,2013-02-22 14:58:00,
2013-02-22 09:59:00,24.6,20.5,29.40,South,178,0.0,4.0,84,0.00,,,0.00,meteohub,2013-02-22 14:59:00,
2013-02-22 10:02:00,25.0,20.5,29.40,South,178,3.0,4.0,83,0.00,,,0.00,meteohub,2013-02-22 15:02:00,
2013-02-22 10:03:00,24.8,20.3,29.40,South,179,1.0,4.0,83,0.00,,,0.00,meteohub,2013-02-22 15:03:00,
2013-02-22 10:04:00,24.8,20.1,29.40,South,175,0.0,4.0,82,0.00,,,0.00,meteohub,2013-02-22 15:04:00,
2013-02-22 10:08:00,25.0,20.3,29.40,SE,138,0.0,4.0,82,0.00,,,0.00,meteohub,2013-02-22 15:08:00,
2013-02-22 10:09:00,25.0,20.3,29.40,SE,138,0.0,4.0,82,0.00,,,0.00,meteohub,2013-02-22 15:09:00,
2013-02-22 10:10:00,25.2,20.5,29.40,SE,138,0.0,4.0,82,0.00,,,0.00,meteohub,2013-02-22 15:10:00,
2013-02-22 10:11:00,25.2,20.5,29.40,SSE,150,3.0,4.0,82,0.00,,,0.00,meteohub,2013-02-22 15:11:00,
2013-02-22 10:14:00,25.2,20.1,29.40,SSE,151,0.0,4.0,81,0.00,,,0.00,meteohub,2013-02-22 15:14:00,
2013-02-22 10:15:00,25.2,20.5,29.40,SSE,151,1.0,5.0,82,0.00,,,0.00,meteohub,2013-02-22 15:15:00,
2013-02-22 10:16:00,25.2,20.5,29.40,SSE,151,0.0,5.0,82,0.00,,,0.00,meteohub,2013-02-22 15:16:00,
2013-02-22 10:17:00,25.3,20.7,29.40,SSE,151,0.0,5.0,82,0.00,,,0.00,meteohub,2013-02-22 15:17:00,
2013-02-22 10:20:00,25.5,20.8,29.40,SSE,151,0.0,5.0,82,0.00,,,0.00,meteohub,2013-02-22 15:20:00,
2013-02-22 10:21:00,25.7,21.0,29.40,SE,140,0.0,5.0,82,0.00,,,0.00,meteohub,2013-02-22 15:21:00,
2013-02-22 10:22:00,25.7,21.0,29.40,SE,140,0.0,5.0,82,0.00,,,0.00,meteohub,2013-02-22 15:22:00,
2013-02-22 10:23:00,25.9,20.8,29.40,SE,140,0.0,5.0,81,0.00,,,0.00,meteohub,2013-02-22 15:23:00,
2013-02-22 10:26:00,25.9,20.3,29.40,SE,140,0.0,5.0,79,0.00,,,0.00,meteohub,2013-02-22 15:26:00,
2013-02-22 10:27:00,26.1,20.5,29.40,SE,140,0.0,5.0,79,0.00,,,0.00,meteohub,2013-02-22 15:27:00,
2013-02-22 10:28:00,26.1,20.5,29.40,SE,140,0.0,5.0,79,0.00,,,0.00,meteohub,2013-02-22 15:28:00,
2013-02-22 10:32:00,25.9,20.3,29.40,SE,140,0.0,2.0,79,0.00,,,0.00,meteohub,2013-02-22 15:32:00,
2013-02-22 10:33:00,25.9,20.5,29.40,SE,140,0.0,2.0,80,0.00,,,0.00,meteohub,2013-02-22 15:33:00,
2013-02-22 10:35:00,26.1,20.7,29.40,SE,142,1.0,2.0,80,0.00,,,0.00,meteohub,2013-02-22 15:35:00,
2013-02-22 10:36:00,26.1,20.7,29.40,SE,142,0.0,2.0,80,0.00,,,0.00,meteohub,2013-02-22 15:36:00,
2013-02-22 10:37:00,26.1,20.7,29.40,SE,142,0.0,2.0,80,0.00,,,0.00,meteohub,2013-02-22 15:37:00,
2013-02-22 10:38:00,26.2,20.7,29.40,SE,142,0.0,2.0,79,0.00,,,0.00,meteohub,2013-02-22 15:38:00,
2013-02-22 10:42:00,26.4,20.8,29.39,SE,142,0.0,2.0,79,0.00,,,0.00,meteohub,2013-02-22 15:42:00,
2013-02-22 10:43:00,26.6,21.0,29.39,SE,143,2.0,2.0,79,0.00,,,0.00,meteohub,2013-02-22 15:43:00,
2013-02-22 10:44:00,26.6,21.0,29.39,SE,142,2.0,2.0,79,0.00,,,0.00,meteohub,2013-02-22 15:44:00,
2013-02-22 10:47:00,26.8,20.8,29.39,SE,143,0.0,3.0,78,0.00,,,0.00,meteohub,2013-02-22 15:47:00,
2013-02-22 10:48:00,26.8,20.8,29.39,SE,143,0.0,3.0,78,0.00,,,0.00,meteohub,2013-02-22 15:48:00,
2013-02-22 10:49:00,26.8,20.8,29.39,ENE,71,2.0,3.0,78,0.00,,,0.00,meteohub,2013-02-22 15:49:00,
2013-02-22 10:53:00,26.6,20.3,29.38,South,171,3.0,4.0,77,0.00,,,0.00,meteohub,2013-02-22 15:53:00,
2013-02-22 10:56:00,26.8,20.8,29.39,South,172,0.0,5.0,78,0.00,,,0.00,meteohub,2013-02-22 15:56:00,
2013-02-22 10:58:00,27.0,21.0,29.39,East,86,3.0,5.0,78,0.00,,,0.00,meteohub,2013-02-22 15:58:00,
2013-02-22 11:01:00,27.1,20.3,29.39,South,184,0.0,5.0,75,0.00,,,0.00,meteohub,2013-02-22 16:01:00,
2013-02-22 11:02:00,27.1,20.7,29.39,SSW,192,2.0,5.0,76,0.00,,,0.00,meteohub,2013-02-22 16:02:00,
2013-02-22 11:03:00,27.1,20.7,29.39,South,170,4.0,5.0,76,0.00,,,0.00,meteohub,2013-02-22 16:03:00,
2013-02-22 11:05:00,27.0,20.1,29.38,South,175,5.0,5.0,75,0.00,,,0.00,meteohub,2013-02-22 16:05:00,
2013-02-22 11:08:00,27.1,20.3,29.38,South,174,2.0,9.0,75,0.00,,,0.00,meteohub,2013-02-22 16:08:00,
2013-02-22 11:10:00,27.1,19.9,29.38,South,171,0.0,9.0,74,0.00,,,0.00,meteohub,2013-02-22 16:10:00,
2013-02-22 11:11:00,27.1,19.9,29.38,SSE,165,0.0,9.0,74,0.00,,,0.00,meteohub,2013-02-22 16:11:00,
2013-02-22 11:13:00,27.5,20.7,29.38,South,170,3.0,9.0,75,0.00,,,0.00,meteohub,2013-02-22 16:13:00,
2013-02-22 11:22:00,27.3,20.8,29.38,South,190,2.0,7.0,76,0.00,,,0.00,meteohub,2013-02-22 16:22:00,
2013-02-22 11:26:00,27.9,20.7,29.38,South,173,0.0,7.0,74,0.00,,,0.00,meteohub,2013-02-22 16:26:00,
2013-02-22 11:27:00,27.9,20.7,29.38,South,172,4.0,7.0,74,0.00,,,0.00,meteohub,2013-02-22 16:27:00,
2013-02-22 11:28:00,27.9,20.7,29.38,SSE,157,2.0,7.0,74,0.00,,,0.00,meteohub,2013-02-22 16:28:00,
2013-02-22 11:32:00,27.9,19.8,29.38,South,183,3.0,7.0,71,0.00,,,0.00,meteohub,2013-02-22 16:32:00,
2013-02-22 11:33:00,27.7,19.6,29.38,SSW,192,3.0,7.0,71,0.00,,,0.00,meteohub,2013-02-22 16:33:00,
2013-02-22 11:34:00,27.7,19.6,29.38,NE,42,3.0,7.0,71,0.00,,,0.00,meteohub,2013-02-22 16:34:00,
2013-02-22 11:38:00,27.9,19.8,29.38,ESE,111,0.0,7.0,71,0.00,,,0.00,meteohub,2013-02-22 16:38:00,
2013-02-22 11:39:00,27.9,19.8,29.38,NW,313,4.0,7.0,71,0.00,,,0.00,meteohub,2013-02-22 16:39:00,
2013-02-22 11:41:00,28.0,19.6,29.38,NW,306,4.0,7.0,70,0.00,,,0.00,meteohub,2013-02-22 16:41:00,
2013-02-22 11:43:00,28.0,19.6,29.38,SW,225,3.0,7.0,70,0.00,,,0.00,meteohub,2013-02-22 16:43:00,
2013-02-22 11:45:00,28.0,19.6,29.38,NE,49,1.0,7.0,70,0.00,,,0.00,meteohub,2013-02-22 16:45:00,
2013-02-22 11:47:00,28.2,20.1,29.38,NNE,22,1.0,7.0,71,0.00,,,0.00,meteohub,2013-02-22 16:47:00,
2013-02-22 11:49:00,28.2,20.1,29.38,NNE,22,0.0,7.0,71,0.00,,,0.00,meteohub,2013-02-22 16:49:00,
2013-02-22 11:51:00,28.4,19.9,29.38,South,171,3.0,6.0,70,0.00,,,0.00,meteohub,2013-02-22 16:51:00,
2013-02-22 11:54:00,28.2,19.4,29.38,SSW,196,2.0,6.0,69,0.00,,,0.00,meteohub,2013-02-22 16:54:00,
2013-02-22 11:55:00,28.2,19.4,29.38,SSE,149,2.0,6.0,69,0.00,,,0.00,meteohub,2013-02-22 16:55:00,
2013-02-22 11:56:00,28.0,19.2,29.38,SSE,156,0.0,6.0,69,0.00,,,0.00,meteohub,2013-02-22 16:56:00,
2013-02-22 11:57:00,28.0,19.6,29.38,SE,138,1.0,6.0,70,0.00,,,0.00,meteohub,2013-02-22 16:57:00,
2013-02-22 11:59:00,28.2,19.8,29.38,East,80,0.0,6.0,70,0.00,,,0.00,meteohub,2013-02-22 16:59:00,
2013-02-22 12:01:00,28.2,19.8,29.38,East,79,0.0,6.0,70,0.00,,,0.00,meteohub,2013-02-22 17:01:00,
2013-02-22 12:03:00,28.4,20.1,29.38,East,80,2.0,6.0,71,0.00,,,0.00,meteohub,2013-02-22 17:03:00,
2013-02-22 12:05:00,28.6,20.1,29.38,East,80,0.0,6.0,70,0.00,,,0.00,meteohub,2013-02-22 17:05:00,
2013-02-22 12:07:00,28.6,20.1,29.37,West,265,3.0,6.0,70,0.00,,,0.00,meteohub,2013-02-22 17:07:00,
2013-02-22 12:08:00,28.6,19.8,29.37,NW,315,4.0,6.0,69,0.00,,,0.00,meteohub,2013-02-22 17:08:00,
2013-02-22 12:11:00,28.4,19.6,29.37,North,0,0.0,6.0,69,0.00,,,0.00,meteohub,2013-02-22 17:11:00,
2013-02-22 12:14:00,28.2,19.4,29.37,SSW,205,2.0,6.0,69,0.00,,,0.00,meteohub,2013-02-22 17:14:00,
2013-02-22 12:15:00,28.2,19.4,29.37,NW,321,2.0,6.0,69,0.00,,,0.00,meteohub,2013-02-22 17:15:00,
2013-02-22 12:18:00,28.0,19.6,29.37,South,175,5.0,6.0,70,0.00,,,0.00,meteohub,2013-02-22 17:18:00,
2013-02-22 12:20:00,28.0,19.6,29.37,NW,319,2.0,6.0,70,0.00,,,0.00,meteohub,2013-02-22 17:20:00,
2013-02-22 12:22:00,27.9,19.4,29.36,NNE,33,0.0,8.0,70,0.00,,,0.00,meteohub,2013-02-22 17:22:00,
2013-02-22 12:25:00,27.9,19.4,29.36,East,97,1.0,8.0,70,0.00,,,0.00,meteohub,2013-02-22 17:25:00,
2013-02-22 12:26:00,28.0,19.6,29.37,East,97,0.0,8.0,70,0.00,,,0.00,meteohub,2013-02-22 17:26:00,
2013-02-22 12:27:00,28.0,19.6,29.37,SSE,161,1.0,8.0,70,0.00,,,0.00,meteohub,2013-02-22 17:27:00,
2013-02-22 12:28:00,28.0,19.6,29.37,SSE,159,4.0,8.0,70,0.00,,,0.00,meteohub,2013-02-22 17:28:00,
2013-02-22 12:30:00,27.9,19.4,29.36,WNW,289,2.0,8.0,70,0.00,,,0.00,meteohub,2013-02-22 17:30:00,
2013-02-22 12:32:00,28.0,19.9,29.36,East,85,1.0,8.0,71,0.00,,,0.00,meteohub,2013-02-22 17:32:00,
2013-02-22 12:35:00,28.2,20.1,29.36,SE,133,0.0,8.0,71,0.00,,,0.00,meteohub,2013-02-22 17:35:00,
2013-02-22 12:37:00,28.4,20.1,29.36,East,96,0.0,6.0,71,0.00,,,0.00,meteohub,2013-02-22 17:37:00,
2013-02-22 12:38:00,28.6,20.3,29.36,East,88,0.0,6.0,71,0.00,,,0.00,meteohub,2013-02-22 17:38:00,
2013-02-22 12:40:00,28.8,20.5,29.36,ENE,73,1.0,6.0,71,0.00,,,0.00,meteohub,2013-02-22 17:40:00,
2013-02-22 12:42:00,28.9,20.1,29.36,East,83,1.0,6.0,69,0.00,,,0.00,meteohub,2013-02-22 17:42:00,
2013-02-22 12:43:00,28.9,20.5,29.36,SE,131,2.0,6.0,70,0.00,,,0.00,meteohub,2013-02-22 17:43:00,
2013-02-22 12:45:00,29.1,20.5,29.36,ENE,76,0.0,6.0,70,0.00,,,0.00,meteohub,2013-02-22 17:45:00,
2013-02-22 12:49:00,29.1,20.3,29.36,ENE,62,0.0,4.0,69,0.00,,,0.00,meteohub,2013-02-22 17:49:00,
2013-02-22 12:50:00,28.9,20.1,29.35,ENE,63,1.0,4.0,69,0.00,,,0.00,meteohub,2013-02-22 17:50:00,
2013-02-22 12:51:00,28.9,20.5,29.35,ENE,61,0.0,4.0,70,0.00,,,0.00,meteohub,2013-02-22 17:51:00,
2013-02-22 12:54:00,29.1,20.5,29.35,East,90,1.0,4.0,70,0.00,,,0.00,meteohub,2013-02-22 17:54:00,
2013-02-22 12:55:00,29.1,20.5,29.35,East,92,0.0,4.0,70,0.00,,,0.00,meteohub,2013-02-22 17:55:00,
2013-02-22 12:56:00,29.1,20.5,29.35,ENE,76,4.0,4.0,70,0.00,,,0.00,meteohub,2013-02-22 17:56:00,
2013-02-22 13:00:00,29.3,20.7,29.35,NNW,334,2.0,8.0,70,0.00,,,0.00,meteohub,2013-02-22 18:00:00,
2013-02-22 13:01:00,29.3,20.7,29.35,NNW,335,2.0,8.0,70,0.00,,,0.00,meteohub,2013-02-22 18:01:00,
2013-02-22 13:02:00,29.3,20.7,29.35,West,268,1.0,8.0,70,0.00,,,0.00,meteohub,2013-02-22 18:02:00,
2013-02-22 13:06:00,29.5,20.7,29.35,West,264,0.0,8.0,69,0.00,,,0.00,meteohub,2013-02-22 18:06:00,
2013-02-22 13:07:00,29.5,20.7,29.35,West,264,0.0,8.0,69,0.00,,,0.00,meteohub,2013-02-22 18:07:00,
2013-02-22 13:08:00,29.5,20.7,29.35,West,264,0.0,8.0,69,0.00,,,0.00,meteohub,2013-02-22 18:08:00,
2013-02-22 13:12:00,28.9,19.8,29.34,WSW,257,2.0,8.0,68,0.00,,,0.00,meteohub,2013-02-22 18:12:00,
2013-02-22 13:13:00,28.8,19.9,29.34,WSW,257,0.0,8.0,69,0.00,,,0.00,meteohub,2013-02-22 18:13:00,
2013-02-22 13:16:00,28.9,20.7,29.35,WSW,257,2.0,3.0,71,0.00,,,0.00,meteohub,2013-02-22 18:16:00,
2013-02-22 13:17:00,28.9,20.7,29.35,WSW,257,0.0,3.0,71,0.00,,,0.00,meteohub,2013-02-22 18:17:00,
2013-02-22 13:18:00,28.9,20.5,29.35,SSW,213,1.0,3.0,70,0.00,,,0.00,meteohub,2013-02-22 18:18:00,
2013-02-22 13:21:00,29.3,20.5,29.35,ENE,67,2.0,5.0,69,0.00,,,0.00,meteohub,2013-02-22 18:21:00,
2013-02-22 13:22:00,29.3,20.5,29.34,South,185,3.0,5.0,69,0.00,,,0.00,meteohub,2013-02-22 18:22:00,
2013-02-22 13:24:00,29.5,20.7,29.34,WSW,248,4.0,5.0,69,0.00,,,0.00,meteohub,2013-02-22 18:24:00,
2013-02-22 13:25:00,29.5,20.7,29.34,ENE,67,2.0,5.0,69,0.00,,,0.00,meteohub,2013-02-22 18:25:00,
2013-02-22 13:26:00,29.5,20.7,29.34,SSW,192,2.0,5.0,69,0.00,,,0.00,meteohub,2013-02-22 18:26:00,
2013-02-22 13:27:00,29.5,20.7,29.34,SSW,195,1.0,5.0,69,0.00,,,0.00,meteohub,2013-02-22 18:27:00,
2013-02-22 13:30:00,29.3,20.1,29.34,SSE,166,4.0,5.0,68,0.00,,,0.00,meteohub,2013-02-22 18:30:00,
2013-02-22 13:32:00,29.1,19.9,29.34,South,182,0.0,5.0,68,0.00,,,0.00,meteohub,2013-02-22 18:32:00,
2013-02-22 13:35:00,28.9,19.8,29.34,SSE,152,0.0,5.0,68,0.00,,,0.00,meteohub,2013-02-22 18:35:00,
2013-02-22 13:36:00,28.9,20.1,29.34,SSE,157,0.0,5.0,69,0.00,,,0.00,meteohub,2013-02-22 18:36:00,
2013-02-22 13:37:00,29.1,20.3,29.34,SSE,154,0.0,5.0,69,0.00,,,0.00,meteohub,2013-02-22 18:37:00,
2013-02-22 13:38:00,29.1,20.3,29.34,SSE,159,0.0,5.0,69,0.00,,,0.00,meteohub,2013-02-22 18:38:00,
2013-02-22 13:42:00,29.1,20.3,29.34,SW,223,3.0,5.0,69,0.00,,,0.00,meteohub,2013-02-22 18:42:00,
2013-02-22 13:43:00,29.1,20.3,29.33,SSE,161,0.0,5.0,69,0.00,,,0.00,meteohub,2013-02-22 18:43:00,
2013-02-22 13:45:00,29.3,20.5,29.33,SE,135,0.0,5.0,69,0.00,,,0.00,meteohub,2013-02-22 18:45:00,
2013-02-22 13:48:00,28.9,19.4,29.33,South,181,0.0,5.0,67,0.00,,,0.00,meteohub,2013-02-22 18:48:00,
2013-02-22 13:49:00,28.9,19.4,29.33,SSE,159,5.0,5.0,67,0.00,,,0.00,meteohub,2013-02-22 18:49:00,
2013-02-22 13:50:00,28.8,19.2,29.33,SSE,165,2.0,5.0,67,0.00,,,0.00,meteohub,2013-02-22 18:50:00,
2013-02-22 13:54:00,28.6,19.8,29.33,NE,48,1.0,6.0,69,0.00,,,0.00,meteohub,2013-02-22 18:54:00,
2013-02-22 13:55:00,28.6,19.8,29.33,WNW,285,3.0,6.0,69,0.00,,,0.00,meteohub,2013-02-22 18:55:00,
2013-02-22 13:57:00,28.6,19.8,29.33,South,184,1.0,7.0,69,0.00,,,0.00,meteohub,2013-02-22 18:57:00,
2013-02-22 13:59:00,28.8,20.3,29.33,SSE,167,0.0,7.0,70,0.00,,,0.00,meteohub,2013-02-22 18:59:00,
2013-02-22 14:00:00,28.8,20.3,29.33,SSE,165,0.0,7.0,70,0.00,,,0.00,meteohub,2013-02-22 19:00:00,
2013-02-22 14:02:00,29.1,20.3,29.33,SSE,168,0.0,7.0,69,0.00,,,0.00,meteohub,2013-02-22 19:02:00,
2013-02-22 14:06:00,29.5,20.3,29.32,South,171,1.0,7.0,68,0.00,,,0.00,meteohub,2013-02-22 19:06:00,
2013-02-22 14:07:00,29.5,20.3,29.32,South,186,0.0,7.0,68,0.00,,,0.00,meteohub,2013-02-22 19:07:00,
2013-02-22 14:08:00,29.5,19.9,29.33,South,187,1.0,7.0,67,0.00,,,0.00,meteohub,2013-02-22 19:08:00,
2013-02-22 14:13:00,29.3,20.1,29.33,SSE,168,1.0,4.0,68,0.00,,,0.00,meteohub,2013-02-22 19:13:00,
2013-02-22 14:14:00,29.5,20.3,29.32,SSE,168,0.0,4.0,68,0.00,,,0.00,meteohub,2013-02-22 19:14:00,
2013-02-22 14:18:00,29.7,20.5,29.33,South,179,0.0,4.0,68,0.00,,,0.00,meteohub,2013-02-22 19:18:00,
2013-02-22 14:19:00,29.7,20.5,29.33,East,88,3.0,4.0,68,0.00,,,0.00,meteohub,2013-02-22 19:19:00,
2013-02-22 14:20:00,29.7,20.5,29.33,East,98,0.0,4.0,68,0.00,,,0.00,meteohub,2013-02-22 19:20:00,
2013-02-22 14:21:00,29.8,20.7,29.33,WSW,243,0.0,8.0,68,0.00,,,0.00,meteohub,2013-02-22 19:21:00,
2013-02-22 14:24:00,30.0,20.7,29.33,WSW,243,1.0,8.0,68,0.00,,,0.00,meteohub,2013-02-22 19:24:00,
2013-02-22 14:25:00,30.4,21.0,29.33,SW,219,0.0,8.0,68,0.00,,,0.00,meteohub,2013-02-22 19:25:00,
2013-02-22 14:26:00,30.4,20.7,29.33,SW,227,1.0,8.0,67,0.00,,,0.00,meteohub,2013-02-22 19:26:00,
2013-02-22 14:28:00,30.6,20.8,29.33,SSW,213,1.0,8.0,67,0.00,,,0.00,meteohub,2013-02-22 19:28:00,
2013-02-22 14:31:00,30.6,20.5,29.33,SE,145,0.0,8.0,66,0.00,,,0.00,meteohub,2013-02-22 19:31:00,
2013-02-22 14:35:00,30.4,19.9,29.33,SE,135,0.0,8.0,65,0.00,,,0.00,meteohub,2013-02-22 19:35:00,
2013-02-22 14:37:00,30.0,20.1,29.33,SSE,155,3.0,4.0,66,0.00,,,0.00,meteohub,2013-02-22 19:37:00,
2013-02-22 14:38:00,29.8,19.9,29.33,SSE,155,1.0,4.0,66,0.00,,,0.00,meteohub,2013-02-22 19:38:00,
2013-02-22 14:40:00,29.7,20.1,29.33,SSE,153,2.0,4.0,67,0.00,,,0.00,meteohub,2013-02-22 19:40:00,
2013-02-22 14:43:00,29.5,19.9,29.33,South,188,0.0,4.0,67,0.00,,,0.00,meteohub,2013-02-22 19:43:00,
2013-02-22 14:46:00,29.5,19.9,29.33,South,180,3.0,7.0,67,0.00,,,0.00,meteohub,2013-02-22 19:46:00,
2013-02-22 14:48:00,29.3,20.1,29.33,South,180,0.0,7.0,68,0.00,,,0.00,meteohub,2013-02-22 19:48:00,
2013-02-22 14:49:00,29.3,20.1,29.33,South,180,1.0,7.0,68,0.00,,,0.00,meteohub,2013-02-22 19:49:00,
2013-02-22 14:50:00,29.3,20.1,29.33,South,180,3.0,7.0,68,0.00,,,0.00,meteohub,2013-02-22 19:50:00,
2013-02-22 14:51:00,29.3,20.1,29.33,South,180,1.0,7.0,68,0.00,,,0.00,meteohub,2013-02-22 19:51:00,
2013-02-22 14:54:00,29.3,20.1,29.33,South,180,0.0,7.0,68,0.00,,,0.00,meteohub,2013-02-22 19:54:00,
2013-02-22 14:56:00,29.5,20.3,29.33,South,180,0.0,7.0,68,0.00,,,0.00,meteohub,2013-02-22 19:56:00,
2013-02-22 14:57:00,29.5,20.3,29.33,South,180,0.0,7.0,68,0.00,,,0.00,meteohub,2013-02-22 19:57:00,
2013-02-22 14:59:00,29.5,19.9,29.33,South,180,0.0,7.0,67,0.00,,,0.00,meteohub,2013-02-22 19:59:00,
2013-02-22 15:02:00,29.5,20.3,29.33,South,180,1.0,4.0,68,0.00,,,0.00,meteohub,2013-02-22 20:02:00,
2013-02-22 15:03:00,29.5,20.3,29.32,SSE,168,5.0,5.0,68,0.00,,,0.00,meteohub,2013-02-22 20:03:00,
2013-02-22 15:05:00,29.1,19.6,29.32,South,170,1.0,5.0,67,0.00,,,0.00,meteohub,2013-02-22 20:05:00,
2013-02-22 15:07:00,29.1,19.9,29.32,SSW,198,3.0,5.0,68,0.00,,,0.00,meteohub,2013-02-22 20:07:00,
2013-02-22 15:08:00,29.1,19.9,29.32,SSW,198,2.0,5.0,68,0.00,,,0.00,meteohub,2013-02-22 20:08:00,
2013-02-22 15:10:00,28.9,19.8,29.32,SSW,198,0.0,5.0,68,0.00,,,0.00,meteohub,2013-02-22 20:10:00,
2013-02-22 15:12:00,28.8,19.6,29.32,SSW,207,5.0,5.0,68,0.00,,,0.00,meteohub,2013-02-22 20:12:00,
2013-02-22 15:13:00,28.6,19.4,29.32,SSW,207,2.0,5.0,68,0.00,,,0.00,meteohub,2013-02-22 20:13:00,
2013-02-22 15:14:00,28.4,19.6,29.32,SSW,207,0.0,5.0,69,0.00,,,0.00,meteohub,2013-02-22 20:14:00,
2013-02-22 15:16:00,28.2,19.8,29.32,SSW,207,2.0,6.0,70,0.00,,,0.00,meteohub,2013-02-22 20:16:00,
2013-02-22 15:17:00,28.2,19.8,29.32,SSW,207,0.0,6.0,70,0.00,,,0.00,meteohub,2013-02-22 20:17:00,
2013-02-22 15:18:00,28.4,19.9,29.32,SSW,207,0.0,6.0,70,0.00,,,0.00,meteohub,2013-02-22 20:18:00,
2013-02-22 15:20:00,28.6,20.1,29.32,SSW,198,0.0,6.0,70,0.00,,,0.00,meteohub,2013-02-22 20:20:00,
2013-02-22 15:22:00,28.8,20.3,29.32,SSW,198,1.0,6.0,70,0.00,,,0.00,meteohub,2013-02-22 20:22:00,
2013-02-22 15:23:00,28.8,20.3,29.32,SSW,198,1.0,6.0,70,0.00,,,0.00,meteohub,2013-02-22 20:23:00,
2013-02-22 15:26:00,28.6,19.8,29.32,SSW,198,3.0,6.0,69,0.00,,,0.00,meteohub,2013-02-22 20:26:00,
2013-02-22 15:27:00,28.4,19.6,29.32,SSW,198,3.0,6.0,69,0.00,,,0.00,meteohub,2013-02-22 20:27:00,
2013-02-22 15:28:00,28.2,19.4,29.32,SSW,198,2.0,6.0,69,0.00,,,0.00,meteohub,2013-02-22 20:28:00,
2013-02-22 15:30:00,28.2,19.8,29.31,SSW,198,0.0,6.0,70,0.00,,,0.00,meteohub,2013-02-22 20:30:00,
2013-02-22 15:32:00,28.2,19.8,29.32,SSW,198,1.0,5.0,70,0.00,,,0.00,meteohub,2013-02-22 20:32:00,
2013-02-22 15:35:00,28.2,20.1,29.31,WSW,243,0.0,5.0,71,0.00,,,0.00,meteohub,2013-02-22 20:35:00,
2013-02-22 15:37:00,28.4,20.1,29.32,West,265,1.0,5.0,71,0.00,,,0.00,meteohub,2013-02-22 20:37:00,
2013-02-22 15:40:00,28.4,19.9,29.31,West,265,0.0,5.0,70,0.00,,,0.00,meteohub,2013-02-22 20:40:00,
2013-02-22 15:41:00,28.6,20.1,29.32,West,265,0.0,4.0,70,0.00,,,0.00,meteohub,2013-02-22 20:41:00,
2013-02-22 15:42:00,28.6,20.1,29.31,West,265,0.0,4.0,70,0.00,,,0.00,meteohub,2013-02-22 20:42:00,
2013-02-22 15:45:00,28.8,20.3,29.31,West,265,0.0,3.0,70,0.00,,,0.00,meteohub,2013-02-22 20:45:00,
2013-02-22 15:46:00,28.8,20.3,29.31,West,265,0.0,3.0,70,0.00,,,0.00,meteohub,2013-02-22 20:46:00,
2013-02-22 15:47:00,28.9,20.5,29.31,West,265,0.0,3.0,70,0.00,,,0.00,meteohub,2013-02-22 20:47:00,
2013-02-22 15:48:00,28.9,20.1,29.31,West,265,0.0,3.0,69,0.00,,,0.00,meteohub,2013-02-22 20:48:00,
2013-02-22 15:51:00,29.1,20.3,29.31,West,260,0.0,3.0,69,0.00,,,0.00,meteohub,2013-02-22 20:51:00,
2013-02-22 15:52:00,29.1,20.3,29.31,West,260,0.0,3.0,69,0.00,,,0.00,meteohub,2013-02-22 20:52:00,
2013-02-22 15:53:00,29.1,20.3,29.30,West,260,0.0,3.0,69,0.00,,,0.00,meteohub,2013-02-22 20:53:00,
2013-02-22 15:56:00,29.5,20.7,29.30,West,260,1.0,2.0,69,0.00,,,0.00,meteohub,2013-02-22 20:56:00,
2013-02-22 15:58:00,29.3,20.1,29.30,SW,223,5.0,5.0,68,0.00,,,0.00,meteohub,2013-02-22 20:58:00,
2013-02-22 16:02:00,28.6,19.8,29.30,SW,216,2.0,6.0,69,0.00,,,0.00,meteohub,2013-02-22 21:02:00,
2013-02-22 16:04:00,28.4,19.9,29.30,SW,215,0.0,6.0,70,0.00,,,0.00,meteohub,2013-02-22 21:04:00,
2013-02-22 16:05:00,28.4,19.9,29.30,SW,215,0.0,6.0,70,0.00,,,0.00,meteohub,2013-02-22 21:05:00,
2013-02-22 16:07:00,28.6,20.3,29.30,SW,215,0.0,6.0,71,0.00,,,0.00,meteohub,2013-02-22 21:07:00,
2013-02-22 16:10:00,28.6,20.1,29.30,SW,215,0.0,6.0,70,0.00,,,0.00,meteohub,2013-02-22 21:10:00,
2013-02-22 16:11:00,28.6,20.1,29.30,SW,215,0.0,6.0,70,0.00,,,0.00,meteohub,2013-02-22 21:11:00,
2013-02-22 16:13:00,28.6,20.1,29.30,SW,215,0.0,6.0,70,0.00,,,0.00,meteohub,2013-02-22 21:13:00,
2013-02-22 16:15:00,28.6,20.1,29.30,SW,215,0.0,6.0,70,0.00,,,0.00,meteohub,2013-02-22 21:15:00,
2013-02-22 16:16:00,28.6,20.1,29.30,SW,215,0.0,4.0,70,0.00,,,0.00,meteohub,2013-02-22 21:16:00,
2013-02-22 16:17:00,28.6,20.1,29.30,SW,215,2.0,4.0,70,0.00,,,0.00,meteohub,2013-02-22 21:17:00,
2013-02-22 16:18:00,28.6,20.1,29.30,SW,215,1.0,4.0,70,0.00,,,0.00,meteohub,2013-02-22 21:18:00,
2013-02-22 16:20:00,28.6,20.1,29.30,SW,215,0.0,4.0,70,0.00,,,0.00,meteohub,2013-02-22 21:20:00,
2013-02-22 16:23:00,28.6,20.1,29.29,SW,215,0.0,2.0,70,0.00,,,0.00,meteohub,2013-02-22 21:23:00,
2013-02-22 16:24:00,28.8,20.3,29.29,SW,215,0.0,2.0,70,0.00,,,0.00,meteohub,2013-02-22 21:24:00,
2013-02-22 16:26:00,28.6,20.1,29.29,SW,215,0.0,2.0,70,0.00,,,0.00,meteohub,2013-02-22 21:26:00,
2013-02-22 16:27:00,28.8,20.3,29.29,SW,215,0.0,2.0,70,0.00,,,0.00,meteohub,2013-02-22 21:27:00,
2013-02-22 16:28:00,28.6,20.1,29.29,SW,215,0.0,2.0,70,0.00,,,0.00,meteohub,2013-02-22 21:28:00,
2013-02-22 16:30:00,28.6,20.1,29.29,SW,215,0.0,2.0,70,0.00,,,0.00,meteohub,2013-02-22 21:30:00,
2013-02-22 16:32:00,28.6,20.1,29.29,SW,215,3.0,3.0,70,0.00,,,0.00,meteohub,2013-02-22 21:32:00,
2013-02-22 16:34:00,28.4,19.9,29.30,SW,215,1.0,2.0,70,0.00,,,0.00,meteohub,2013-02-22 21:34:00,
2013-02-22 16:37:00,28.2,20.1,29.30,SSW,209,5.0,5.0,71,0.00,,,0.00,meteohub,2013-02-22 21:37:00,
2013-02-22 16:38:00,28.0,19.9,29.30,SSW,209,3.0,3.0,71,0.00,,,0.00,meteohub,2013-02-22 21:38:00,
2013-02-22 16:40:00,28.0,19.9,29.30,SSW,209,1.0,6.0,71,0.00,,,0.00,meteohub,2013-02-22 21:40:00,
2013-02-22 16:43:00,28.0,19.9,29.29,SSW,209,1.0,6.0,71,0.00,,,0.00,meteohub,2013-02-22 21:43:00,
2013-02-22 16:44:00,28.0,19.9,29.30,SSW,209,3.0,6.0,71,0.00,,,0.00,meteohub,2013-02-22 21:44:00,
2013-02-22 16:45:00,28.0,19.9,29.29,SSW,209,3.0,6.0,71,0.00,,,0.00,meteohub,2013-02-22 21:45:00,
2013-02-22 16:49:00,27.9,19.8,29.30,SSW,209,0.0,6.0,71,0.00,,,0.00,meteohub,2013-02-22 21:49:00,
2013-02-22 16:51:00,27.9,19.9,29.29,SSW,209,0.0,6.0,72,0.00,,,0.00,meteohub,2013-02-22 21:51:00,
2013-02-22 16:52:00,28.0,20.1,29.29,SSW,209,1.0,6.0,72,0.00,,,0.00,meteohub,2013-02-22 21:52:00,
2013-02-22 16:55:00,27.9,19.9,29.30,SSW,209,0.0,6.0,72,0.00,,,0.00,meteohub,2013-02-22 21:55:00,
2013-02-22 16:57:00,27.9,19.8,29.29,SSW,209,0.0,4.0,71,0.00,,,0.00,meteohub,2013-02-22 21:57:00,
2013-02-22 17:00:00,28.0,20.1,29.29,SSW,209,0.0,4.0,72,0.00,,,0.00,meteohub,2013-02-22 22:00:00,
2013-02-22 17:01:00,28.0,20.1,29.29,SSW,209,0.0,4.0,72,0.00,,,0.00,meteohub,2013-02-22 22:01:00,
2013-02-22 17:02:00,27.9,19.9,29.29,SSW,209,0.0,4.0,72,0.00,,,0.00,meteohub,2013-02-22 22:02:00,
2013-02-22 17:04:00,27.9,19.9,29.30,SSW,209,0.0,4.0,72,0.00,,,0.00,meteohub,2013-02-22 22:04:00,
2013-02-22 17:06:00,27.9,19.9,29.29,SSW,209,0.0,3.0,72,0.00,,,0.00,meteohub,2013-02-22 22:06:00,
2013-02-22 17:07:00,27.9,19.9,29.29,SSW,209,0.0,3.0,72,0.00,,,0.00,meteohub,2013-02-22 22:07:00,
2013-02-22 17:08:00,27.9,19.9,29.29,SSW,209,0.0,3.0,72,0.00,,,0.00,meteohub,2013-02-22 22:08:00,
2013-02-22 17:10:00,27.9,19.9,29.29,SSW,209,0.0,3.0,72,0.00,,,0.00,meteohub,2013-02-22 22:10:00,
2013-02-22 17:12:00,27.9,19.9,29.29,SSW,209,0.0,1.0,72,0.00,,,0.00,meteohub,2013-02-22 22:12:00,
2013-02-22 17:13:00,27.9,19.9,29.29,SSW,209,0.0,1.0,72,0.00,,,0.00,meteohub,2013-02-22 22:13:00,
2013-02-22 17:14:00,27.9,19.9,29.29,SSW,209,0.0,1.0,72,0.00,,,0.00,meteohub,2013-02-22 22:14:00,
2013-02-22 17:16:00,27.9,20.3,29.29,SSW,209,0.0,0.0,73,0.00,,,0.00,meteohub,2013-02-22 22:16:00,
2013-02-22 17:17:00,27.9,20.3,29.29,SSW,209,0.0,0.0,73,0.00,,,0.00,meteohub,2013-02-22 22:17:00,
2013-02-22 17:19:00,27.9,20.3,29.29,SSW,209,0.0,0.0,73,0.00,,,0.00,meteohub,2013-02-22 22:19:00,
2013-02-22 17:23:00,27.9,20.3,29.29,SSW,209,0.0,0.0,73,0.00,,,0.00,meteohub,2013-02-22 22:23:00,
2013-02-22 17:24:00,27.9,20.3,29.29,SSW,209,1.0,0.0,73,0.00,,,0.00,meteohub,2013-02-22 22:24:00,
2013-02-22 17:25:00,27.7,20.1,29.29,SSW,209,0.0,1.0,73,0.00,,,0.00,meteohub,2013-02-22 22:25:00,
2013-02-22 17:28:00,27.5,19.9,29.29,SSW,209,3.0,3.0,73,0.00,,,0.00,meteohub,2013-02-22 22:28:00,
2013-02-22 17:29:00,27.3,19.8,29.29,SSW,211,3.0,3.0,73,0.00,,,0.00,meteohub,2013-02-22 22:29:00,
2013-02-22 17:31:00,27.1,19.9,29.29,SSW,211,3.0,4.0,74,0.00,,,0.00,meteohub,2013-02-22 22:31:00,
2013-02-22 17:34:00,27.0,20.5,29.29,SSW,211,1.0,4.0,76,0.00,,,0.00,meteohub,2013-02-22 22:34:00,
2013-02-22 17:36:00,27.0,20.5,29.29,SSW,211,2.0,4.0,76,0.00,,,0.00,meteohub,2013-02-22 22:36:00,
2013-02-22 17:39:00,26.8,19.9,29.29,NNE,24,4.0,4.0,75,0.00,,,0.00,meteohub,2013-02-22 22:39:00,
2013-02-22 17:42:00,26.4,19.6,29.29,North,11,4.0,5.0,75,0.00,,,0.00,meteohub,2013-02-22 22:42:00,
2013-02-22 17:43:00,26.2,19.8,29.29,NNE,13,4.0,5.0,76,0.00,,,0.00,meteohub,2013-02-22 22:43:00,
2013-02-22 17:45:00,26.1,19.8,29.29,NNE,24,4.0,5.0,77,0.00,,,0.00,meteohub,2013-02-22 22:45:00,
2013-02-22 17:47:00,25.9,19.4,29.29,NNE,17,3.0,5.0,76,0.00,,,0.00,meteohub,2013-02-22 22:47:00,
2013-02-22 17:50:00,25.9,19.8,29.28,North,10,4.0,5.0,77,0.00,,,0.00,meteohub,2013-02-22 22:50:00,
2013-02-22 17:52:00,25.9,19.9,29.28,NNE,26,5.0,5.0,78,0.00,,,0.00,meteohub,2013-02-22 22:52:00,
2013-02-22 17:54:00,25.7,19.8,29.28,NNE,28,6.0,6.0,78,0.00,,,0.00,meteohub,2013-02-22 22:54:00,
2013-02-22 17:55:00,25.5,19.4,29.28,NNE,13,4.0,5.0,77,0.00,,,0.00,meteohub,2013-02-22 22:55:00,
2013-02-22 17:57:00,25.5,19.6,29.28,NNE,16,3.0,6.0,78,0.00,,,0.00,meteohub,2013-02-22 22:57:00,
2013-02-22 17:59:00,25.3,19.4,29.28,North,10,2.0,6.0,78,0.00,,,0.00,meteohub,2013-02-22 22:59:00,
2013-02-22 18:00:00,25.3,19.4,29.28,North,10,1.0,6.0,78,0.00,,,0.00,meteohub,2013-02-22 23:00:00,
2013-02-22 18:01:00,25.3,19.4,29.28,North,10,1.0,6.0,78,0.00,,,0.00,meteohub,2013-02-22 23:01:00,
2013-02-22 18:02:00,25.2,19.2,29.28,North,10,0.0,6.0,78,0.00,,,0.00,meteohub,2013-02-22 23:02:00,
2013-02-22 18:05:00,25.2,19.2,29.28,North,10,1.0,6.0,78,0.00,,,0.00,meteohub,2013-02-22 23:05:00,
2013-02-22 18:07:00,25.2,19.2,29.28,North,10,4.0,6.0,78,0.00,,,0.00,meteohub,2013-02-22 23:07:00,
2013-02-22 18:09:00,25.2,19.2,29.28,NNE,29,4.0,6.0,78,0.00,,,0.00,meteohub,2013-02-22 23:09:00,
2013-02-22 18:12:00,25.2,19.2,29.28,NNE,12,2.0,5.0,78,0.00,,,0.00,meteohub,2013-02-22 23:12:00,
2013-02-22 18:14:00,25.2,19.2,29.29,NNE,13,0.0,5.0,78,0.00,,,0.00,meteohub,2013-02-22 23:14:00,
2013-02-22 18:15:00,25.2,19.2,29.29,NNE,13,0.0,5.0,78,0.00,,,0.00,meteohub,2013-02-22 23:15:00,
2013-02-22 18:16:00,25.2,19.2,29.29,NNE,13,0.0,5.0,78,0.00,,,0.00,meteohub,2013-02-22 23:16:00,
2013-02-22 18:18:00,25.0,19.0,29.29,NNE,13,2.0,5.0,78,0.00,,,0.00,meteohub,2013-02-22 23:18:00,
2013-02-22 18:19:00,25.0,19.4,29.29,NNE,13,3.0,5.0,79,0.00,,,0.00,meteohub,2013-02-22 23:19:00,
2013-02-22 18:21:00,25.0,19.4,29.29,NNE,13,3.0,5.0,79,0.00,,,0.00,meteohub,2013-02-22 23:21:00,
2013-02-22 18:22:00,25.2,19.6,29.29,NNE,13,3.0,5.0,79,0.00,,,0.00,meteohub,2013-02-22 23:22:00,
2013-02-22 18:25:00,25.2,19.6,29.29,NNE,13,3.0,5.0,79,0.00,,,0.00,meteohub,2013-02-22 23:25:00,
2013-02-22 18:26:00,25.2,19.6,29.29,NNE,13,2.0,5.0,79,0.00,,,0.00,meteohub,2013-02-22 23:26:00,
2013-02-22 18:27:00,25.2,19.6,29.29,NNE,13,2.0,5.0,79,0.00,,,0.00,meteohub,2013-02-22 23:27:00,
2013-02-22 18:29:00,25.2,19.6,29.29,NNE,13,3.0,5.0,79,0.00,,,0.00,meteohub,2013-02-22 23:29:00,
2013-02-22 18:31:00,25.3,19.8,29.29,NNE,13,1.0,4.0,79,0.00,,,0.00,meteohub,2013-02-22 23:31:00,
2013-02-22 18:32:00,25.3,19.8,29.29,NNE,13,0.0,4.0,79,0.00,,,0.00,meteohub,2013-02-22 23:32:00,
2013-02-22 18:34:00,25.3,19.4,29.29,NNE,13,0.0,4.0,78,0.00,,,0.00,meteohub,2013-02-22 23:34:00,
2013-02-22 18:37:00,25.3,19.4,29.29,NNE,13,3.0,4.0,78,0.00,,,0.00,meteohub,2013-02-22 23:37:00,
2013-02-22 18:39:00,25.3,19.4,29.29,NNE,13,3.0,4.0,78,0.00,,,0.00,meteohub,2013-02-22 23:39:00,
2013-02-22 18:40:00,25.5,19.6,29.29,NNE,17,4.0,5.0,78,0.00,,,0.00,meteohub,2013-02-22 23:40:00,
2013-02-22 18:43:00,25.5,19.9,29.29,NNE,19,2.0,5.0,79,0.00,,,0.00,meteohub,2013-02-22 23:43:00,
2013-02-22 18:44:00,25.5,19.9,29.29,NNE,19,3.0,5.0,79,0.00,,,0.00,meteohub,2013-02-22 23:44:00,
2013-02-22 18:46:00,25.5,19.9,29.29,NNE,19,3.0,5.0,79,0.00,,,0.00,meteohub,2013-02-22 23:46:00,
2013-02-22 18:47:00,25.5,19.9,29.29,NNE,19,2.0,5.0,79,0.00,,,0.00,meteohub,2013-02-22 23:47:00,
2013-02-22 18:48:00,25.5,19.6,29.30,NNE,19,0.0,5.0,78,0.00,,,0.00,meteohub,2013-02-22 23:48:00,
2013-02-22 18:50:00,25.5,19.6,29.30,NNE,19,1.0,5.0,78,0.00,,,0.00,meteohub,2013-02-22 23:50:00,
2013-02-22 18:51:00,25.5,19.6,29.30,NNE,19,2.0,5.0,78,0.00,,,0.00,meteohub,2013-02-22 23:51:00,
2013-02-22 18:52:00,25.5,19.6,29.30,NNE,19,3.0,5.0,78,0.00,,,0.00,meteohub,2013-02-22 23:52:00,
2013-02-22 18:54:00,25.5,19.6,29.30,NNE,19,2.0,5.0,78,0.00,,,0.00,meteohub,2013-02-22 23:54:00,
2013-02-22 18:55:00,25.5,19.6,29.30,NNE,19,3.0,5.0,78,0.00,,,0.00,meteohub,2013-02-22 23:55:00,
2013-02-22 18:57:00,25.5,19.6,29.30,NNE,22,3.0,4.0,78,0.00,,,0.00,meteohub,2013-02-22 23:57:00,
2013-02-22 19:00:00,25.3,19.4,29.29,North,11,5.0,6.0,78,0.00,,,0.00,meteohub,2013-02-23 00:00:00,
2013-02-22 19:02:00,25.5,19.6,29.29,NNE,24,4.0,6.0,78,0.00,,,0.00,meteohub,2013-02-23 00:02:00,
2013-02-22 19:03:00,25.5,19.6,29.29,ENE,61,3.0,6.0,78,0.00,,,0.00,meteohub,2013-02-23 00:03:00,
2013-02-22 19:07:00,25.7,19.8,29.29,ENE,60,0.0,6.0,78,0.00,,,0.00,meteohub,2013-02-23 00:07:00,
2013-02-22 19:10:00,25.9,19.8,29.29,ENE,68,1.0,6.0,77,0.00,,,0.00,meteohub,2013-02-23 00:10:00,
2013-02-22 19:11:00,26.1,19.8,29.29,ENE,68,1.0,6.0,77,0.00,,,0.00,meteohub,2013-02-23 00:11:00,
2013-02-22 19:12:00,26.1,19.8,29.29,ENE,68,3.0,6.0,77,0.00,,,0.00,meteohub,2013-02-23 00:12:00,
2013-02-22 19:14:00,26.1,19.8,29.29,ENE,68,0.0,6.0,77,0.00,,,0.00,meteohub,2013-02-23 00:14:00,
2013-02-22 19:16:00,26.2,19.9,29.29,ENE,68,0.0,6.0,77,0.00,,,0.00,meteohub,2013-02-23 00:16:00,
2013-02-22 19:17:00,26.2,19.9,29.29,ENE,68,0.0,6.0,77,0.00,,,0.00,meteohub,2013-02-23 00:17:00,
2013-02-22 19:19:00,26.4,19.9,29.29,ENE,68,0.0,6.0,76,0.00,,,0.00,meteohub,2013-02-23 00:19:00,
2013-02-22 19:20:00,26.4,19.9,29.29,ENE,68,0.0,6.0,76,0.00,,,0.00,meteohub,2013-02-23 00:20:00,
2013-02-22 19:22:00,26.4,19.9,29.29,ENE,68,0.0,4.0,76,0.00,,,0.00,meteohub,2013-02-23 00:22:00,
2013-02-22 19:26:00,26.6,20.1,29.29,ENE,71,1.0,4.0,76,0.00,,,0.00,meteohub,2013-02-23 00:26:00,
2013-02-22 19:27:00,26.8,20.3,29.29,ENE,71,2.0,4.0,76,0.00,,,0.00,meteohub,2013-02-23 00:27:00,
2013-02-22 19:28:00,26.8,19.9,29.29,ENE,71,1.0,4.0,75,0.00,,,0.00,meteohub,2013-02-23 00:28:00,
2013-02-22 19:31:00,27.0,20.1,29.29,ENE,72,2.0,3.0,75,0.00,,,0.00,meteohub,2013-02-23 00:31:00,
2013-02-22 19:32:00,27.0,20.1,29.29,ENE,72,0.0,3.0,75,0.00,,,0.00,meteohub,2013-02-23 00:32:00,
2013-02-22 19:34:00,27.0,20.1,29.29,ENE,69,3.0,3.0,75,0.00,,,0.00,meteohub,2013-02-23 00:34:00,
2013-02-22 19:37:00,27.0,20.5,29.29,ENE,67,1.0,3.0,76,0.00,,,0.00,meteohub,2013-02-23 00:37:00,
2013-02-22 19:38:00,27.0,20.5,29.29,ENE,67,3.0,3.0,76,0.00,,,0.00,meteohub,2013-02-23 00:38:00,
2013-02-22 19:41:00,27.0,20.5,29.28,ENE,59,4.0,4.0,76,0.00,,,0.00,meteohub,2013-02-23 00:41:00,
2013-02-22 19:42:00,27.0,20.5,29.28,ENE,59,4.0,4.0,76,0.00,,,0.00,meteohub,2013-02-23 00:42:00,
2013-02-22 19:43:00,27.0,20.1,29.28,ENE,59,0.0,4.0,75,0.00,,,0.00,meteohub,2013-02-23 00:43:00,
2013-02-22 19:45:00,27.0,20.1,29.28,ENE,59,0.0,4.0,75,0.00,,,0.00,meteohub,2013-02-23 00:45:00,
2013-02-22 19:46:00,27.0,20.5,29.28,ENE,59,3.0,5.0,76,0.00,,,0.00,meteohub,2013-02-23 00:46:00,
2013-02-22 19:47:00,27.0,20.5,29.28,ENE,59,1.0,5.0,76,0.00,,,0.00,meteohub,2013-02-23 00:47:00,
2013-02-22 19:49:00,26.8,20.3,29.28,ENE,59,0.0,5.0,76,0.00,,,0.00,meteohub,2013-02-23 00:49:00,
2013-02-22 19:50:00,26.8,20.3,29.28,ENE,59,0.0,5.0,76,0.00,,,0.00,meteohub,2013-02-23 00:50:00,
2013-02-22 19:52:00,26.8,20.3,29.28,ENE,59,0.0,5.0,76,0.00,,,0.00,meteohub,2013-02-23 00:52:00,
2013-02-22 19:55:00,26.8,19.9,29.28,ENE,59,3.0,5.0,75,0.00,,,0.00,meteohub,2013-02-23 00:55:00,
2013-02-22 19:56:00,26.8,19.9,29.28,ENE,58,2.0,5.0,75,0.00,,,0.00,meteohub,2013-02-23 00:56:00,
2013-02-22 19:58:00,26.8,19.9,29.28,ENE,61,0.0,5.0,75,0.00,,,0.00,meteohub,2013-02-23 00:58:00,
2013-02-22 20:00:00,26.8,20.3,29.28,ENE,61,0.0,5.0,76,0.00,,,0.00,meteohub,2013-02-23 01:00:00,
2013-02-22 20:01:00,26.8,19.9,29.28,ENE,61,0.0,4.0,75,0.00,,,0.00,meteohub,2013-02-23 01:01:00,
2013-02-22 20:05:00,26.8,20.3,29.28,ENE,61,1.0,4.0,76,0.00,,,0.00,meteohub,2013-02-23 01:05:00,
2013-02-22 20:07:00,26.8,20.3,29.28,ENE,61,0.0,4.0,76,0.00,,,0.00,meteohub,2013-02-23 01:07:00,
2013-02-22 20:08:00,26.8,20.3,29.28,ENE,61,0.0,4.0,76,0.00,,,0.00,meteohub,2013-02-23 01:08:00,
2013-02-22 20:10:00,26.8,20.3,29.28,ENE,58,2.0,3.0,76,0.00,,,0.00,meteohub,2013-02-23 01:10:00,
2013-02-22 20:11:00,26.8,20.3,29.28,ENE,58,1.0,3.0,76,0.00,,,0.00,meteohub,2013-02-23 01:11:00,
2013-02-22 20:12:00,26.8,20.3,29.27,ENE,58,1.0,3.0,76,0.00,,,0.00,meteohub,2013-02-23 01:12:00,
2013-02-22 20:14:00,26.8,20.3,29.27,ENE,58,0.0,3.0,76,0.00,,,0.00,meteohub,2013-02-23 01:14:00,
2013-02-22 20:17:00,26.6,20.1,29.28,ENE,58,0.0,3.0,76,0.00,,,0.00,meteohub,2013-02-23 01:17:00,
2013-02-22 20:19:00,26.6,20.1,29.28,ENE,58,0.0,3.0,76,0.00,,,0.00,meteohub,2013-02-23 01:19:00,
2013-02-22 20:20:00,26.6,20.1,29.28,ENE,58,0.0,3.0,76,0.00,,,0.00,meteohub,2013-02-23 01:20:00,
2013-02-22 20:22:00,26.4,19.9,29.28,ENE,58,0.0,3.0,76,0.00,,,0.00,meteohub,2013-02-23 01:22:00,
2013-02-22 20:25:00,26.4,20.1,29.28,ENE,58,0.0,3.0,77,0.00,,,0.00,meteohub,2013-02-23 01:25:00,
2013-02-22 20:26:00,26.4,20.1,29.28,ENE,58,0.0,3.0,77,0.00,,,0.00,meteohub,2013-02-23 01:26:00,
2013-02-22 20:28:00,26.2,19.9,29.28,ENE,58,2.0,3.0,77,0.00,,,0.00,meteohub,2013-02-23 01:28:00,
2013-02-22 20:30:00,26.2,20.3,29.28,ENE,58,0.0,3.0,78,0.00,,,0.00,meteohub,2013-02-23 01:30:00,
2013-02-22 20:31:00,26.2,20.3,29.28,ENE,58,1.0,3.0,78,0.00,,,0.00,meteohub,2013-02-23 01:31:00,
2013-02-22 20:33:00,26.1,20.1,29.28,NE,44,3.0,3.0,78,0.00,,,0.00,meteohub,2013-02-23 01:33:00,
2013-02-22 20:34:00,26.1,20.1,29.28,NE,46,2.0,3.0,78,0.00,,,0.00,meteohub,2013-02-23 01:34:00,
2013-02-22 20:36:00,26.1,20.1,29.28,NE,46,0.0,3.0,78,0.00,,,0.00,meteohub,2013-02-23 01:36:00,
2013-02-22 20:37:00,26.1,20.1,29.28,NE,46,0.0,3.0,78,0.00,,,0.00,meteohub,2013-02-23 01:37:00,
2013-02-22 20:38:00,26.1,20.1,29.28,NE,46,1.0,3.0,78,0.00,,,0.00,meteohub,2013-02-23 01:38:00,
2013-02-22 20:39:00,26.1,20.1,29.27,NE,37,4.0,4.0,78,0.00,,,0.00,meteohub,2013-02-23 01:39:00,
2013-02-22 20:42:00,26.2,19.9,29.27,North,5,4.0,4.0,77,0.00,,,0.00,meteohub,2013-02-23 01:42:00,
2013-02-22 20:44:00,26.2,19.9,29.27,North,5,2.0,4.0,77,0.00,,,0.00,meteohub,2013-02-23 01:44:00,
2013-02-22 20:45:00,26.4,20.1,29.27,North,5,2.0,5.0,77,0.00,,,0.00,meteohub,2013-02-23 01:45:00,
2013-02-22 20:47:00,26.4,20.5,29.27,North,9,3.0,5.0,78,0.00,,,0.00,meteohub,2013-02-23 01:47:00,
2013-02-22 20:48:00,26.6,20.7,29.27,North,9,2.0,5.0,78,0.00,,,0.00,meteohub,2013-02-23 01:48:00,
2013-02-22 20:50:00,26.8,20.5,29.27,North,9,3.0,5.0,77,0.00,,,0.00,meteohub,2013-02-23 01:50:00,
2013-02-22 20:51:00,26.8,20.5,29.27,North,9,4.0,5.0,77,0.00,,,0.00,meteohub,2013-02-23 01:51:00,
2013-02-22 20:52:00,26.8,20.5,29.27,North,9,4.0,5.0,77,0.00,,,0.00,meteohub,2013-02-23 01:52:00,
2013-02-22 20:54:00,26.6,20.3,29.27,North,9,3.0,5.0,77,0.00,,,0.00,meteohub,2013-02-23 01:54:00,
2013-02-22 20:56:00,26.6,20.3,29.27,North,9,0.0,5.0,77,0.00,,,0.00,meteohub,2013-02-23 01:56:00,
2013-02-22 20:57:00,26.8,20.5,29.27,North,9,1.0,5.0,77,0.00,,,0.00,meteohub,2013-02-23 01:57:00,
2013-02-22 21:01:00,26.6,20.3,29.27,North,9,1.0,5.0,77,0.00,,,0.00,meteohub,2013-02-23 02:01:00,
2013-02-22 21:02:00,26.6,20.3,29.27,North,9,1.0,5.0,77,0.00,,,0.00,meteohub,2013-02-23 02:02:00,
2013-02-22 21:03:00,26.6,20.3,29.27,North,9,2.0,5.0,77,0.00,,,0.00,meteohub,2013-02-23 02:03:00,
2013-02-22 21:06:00,26.6,20.3,29.27,North,9,0.0,4.0,77,0.00,,,0.00,meteohub,2013-02-23 02:06:00,
2013-02-22 21:08:00,26.6,20.1,29.27,North,9,0.0,4.0,76,0.00,,,0.00,meteohub,2013-02-23 02:08:00,
2013-02-22 21:09:00,26.8,20.3,29.27,North,9,2.0,4.0,76,0.00,,,0.00,meteohub,2013-02-23 02:09:00,
2013-02-22 21:11:00,26.8,20.3,29.27,North,9,0.0,3.0,76,0.00,,,0.00,meteohub,2013-02-23 02:11:00,
2013-02-22 21:12:00,26.8,20.3,29.27,North,9,0.0,3.0,76,0.00,,,0.00,meteohub,2013-02-23 02:12:00,
2013-02-22 21:14:00,26.8,20.3,29.27,North,9,0.0,3.0,76,0.00,,,0.00,meteohub,2013-02-23 02:14:00,
2013-02-22 21:15:00,26.8,20.3,29.27,North,9,0.0,3.0,76,0.00,,,0.00,meteohub,2013-02-23 02:15:00,
2013-02-22 21:17:00,26.8,20.3,29.27,North,9,0.0,3.0,76,0.00,,,0.00,meteohub,2013-02-23 02:17:00,
2013-02-22 21:20:00,26.8,20.3,29.27,North,9,0.0,3.0,76,0.00,,,0.00,meteohub,2013-02-23 02:20:00,
2013-02-22 21:21:00,26.8,20.3,29.27,North,9,0.0,2.0,76,0.00,,,0.00,meteohub,2013-02-23 02:21:00,
2013-02-22 21:22:00,26.8,20.3,29.27,North,9,0.0,2.0,76,0.00,,,0.00,meteohub,2013-02-23 02:22:00,
2013-02-22 21:26:00,27.0,20.1,29.27,WSW,252,3.0,3.0,75,0.00,,,0.00,meteohub,2013-02-23 02:26:00,
2013-02-22 21:28:00,27.0,20.1,29.27,SW,218,0.0,2.0,75,0.00,,,0.00,meteohub,2013-02-23 02:28:00,
2013-02-22 21:30:00,27.0,20.1,29.27,SW,218,0.0,2.0,75,0.00,,,0.00,meteohub,2013-02-23 02:30:00,
2013-02-22 21:32:00,27.1,19.9,29.27,SW,218,0.0,4.0,74,0.00,,,0.00,meteohub,2013-02-23 02:32:00,
2013-02-22 21:36:00,27.1,19.9,29.26,SW,218,0.0,4.0,74,0.00,,,0.00,meteohub,2013-02-23 02:36:00,
2013-02-22 21:38:00,27.3,19.8,29.26,SW,218,0.0,4.0,73,0.00,,,0.00,meteohub,2013-02-23 02:38:00,
2013-02-22 21:41:00,27.3,19.8,29.26,SW,218,2.0,4.0,73,0.00,,,0.00,meteohub,2013-02-23 02:41:00,
2013-02-22 21:44:00,27.5,19.6,29.26,SW,218,1.0,4.0,72,0.00,,,0.00,meteohub,2013-02-23 02:44:00,
2013-02-22 21:46:00,27.7,19.8,29.26,SW,218,0.0,3.0,72,0.00,,,0.00,meteohub,2013-02-23 02:46:00,
2013-02-22 21:47:00,27.7,19.8,29.26,SW,218,0.0,3.0,72,0.00,,,0.00,meteohub,2013-02-23 02:47:00,
2013-02-22 21:48:00,27.7,19.8,29.26,SW,218,1.0,3.0,72,0.00,,,0.00,meteohub,2013-02-23 02:48:00,
2013-02-22 21:49:00,27.7,19.8,29.26,SW,218,2.0,3.0,72,0.00,,,0.00,meteohub,2013-02-23 02:49:00,
2013-02-22 21:52:00,27.7,19.8,29.26,SW,218,0.0,3.0,72,0.00,,,0.00,meteohub,2013-02-23 02:52:00,
2013-02-22 21:53:00,27.7,19.8,29.26,SW,218,1.0,3.0,72,0.00,,,0.00,meteohub,2013-02-23 02:53:00,
2013-02-22 21:54:00,27.7,19.8,29.26,SW,218,0.0,3.0,72,0.00,,,0.00,meteohub,2013-02-23 02:54:00,
2013-02-22 21:57:00,27.7,19.8,29.26,SW,218,2.0,2.0,72,0.00,,,0.00,meteohub,2013-02-23 02:57:00,
2013-02-22 21:58:00,27.7,19.8,29.26,South,184,2.0,2.0,72,0.00,,,0.00,meteohub,2013-02-23 02:58:00,
2013-02-22 21:59:00,27.7,19.8,29.26,South,185,2.0,2.0,72,0.00,,,0.00,meteohub,2013-02-23 02:59:00,
2013-02-22 22:00:00,27.5,19.6,29.26,South,173,4.0,4.0,72,0.00,,,0.00,meteohub,2013-02-23 03:00:00,
2013-02-22 22:02:00,27.7,19.8,29.26,South,177,4.0,5.0,72,0.00,,,0.00,meteohub,2013-02-23 03:02:00,
2013-02-22 22:04:00,27.7,19.6,29.26,South,180,3.0,5.0,71,0.00,,,0.00,meteohub,2013-02-23 03:04:00,
2013-02-22 22:05:00,27.7,19.6,29.26,South,181,3.0,5.0,71,0.00,,,0.00,meteohub,2013-02-23 03:05:00,
2013-02-22 22:06:00,27.7,19.6,29.26,South,182,3.0,5.0,71,0.00,,,0.00,meteohub,2013-02-23 03:06:00,
2013-02-22 22:07:00,27.9,19.8,29.26,South,184,3.0,5.0,71,0.00,,,0.00,meteohub,2013-02-23 03:07:00,
2013-02-22 22:09:00,27.9,19.8,29.26,South,173,3.0,5.0,71,0.00,,,0.00,meteohub,2013-02-23 03:09:00,
2013-02-22 22:11:00,27.9,19.8,29.26,South,173,3.0,6.0,71,0.00,,,0.00,meteohub,2013-02-23 03:11:00,
2013-02-22 22:12:00,27.9,19.8,29.26,South,173,3.0,6.0,71,0.00,,,0.00,meteohub,2013-02-23 03:12:00,
2013-02-22 22:15:00,27.9,19.8,29.26,South,173,3.0,6.0,71,0.00,,,0.00,meteohub,2013-02-23 03:15:00,
2013-02-22 22:16:00,27.9,19.4,29.26,South,173,2.0,6.0,70,0.00,,,0.00,meteohub,2013-02-23 03:16:00,
2013-02-22 22:17:00,27.9,19.4,29.26,South,173,2.0,6.0,70,0.00,,,0.00,meteohub,2013-02-23 03:17:00,
2013-02-22 22:18:00,28.0,19.6,29.26,South,173,3.0,6.0,70,0.00,,,0.00,meteohub,2013-02-23 03:18:00,
2013-02-22 22:21:00,28.0,19.6,29.26,South,173,3.0,6.0,70,0.00,,,0.00,meteohub,2013-02-23 03:21:00,
2013-02-22 22:23:00,28.0,19.6,29.26,South,173,0.0,6.0,70,0.00,,,0.00,meteohub,2013-02-23 03:23:00,
2013-02-22 22:24:00,28.0,19.6,29.26,South,173,0.0,6.0,70,0.00,,,0.00,meteohub,2013-02-23 03:24:00,
2013-02-22 22:26:00,28.0,19.6,29.26,South,173,0.0,4.0,70,0.00,,,0.00,meteohub,2013-02-23 03:26:00,
2013-02-22 22:28:00,28.0,19.6,29.26,South,173,0.0,4.0,70,0.00,,,0.00,meteohub,2013-02-23 03:28:00,
2013-02-22 22:29:00,28.2,19.8,29.26,South,173,0.0,4.0,70,0.00,,,0.00,meteohub,2013-02-23 03:29:00,
2013-02-22 22:30:00,28.0,19.6,29.26,South,173,0.0,4.0,70,0.00,,,0.00,meteohub,2013-02-23 03:30:00,
2013-02-22 22:33:00,28.2,19.8,29.26,South,173,1.0,3.0,70,0.00,,,0.00,meteohub,2013-02-23 03:33:00,
2013-02-22 22:34:00,28.2,19.8,29.26,South,173,0.0,3.0,70,0.00,,,0.00,meteohub,2013-02-23 03:34:00,
2013-02-22 22:35:00,28.2,19.8,29.26,South,173,0.0,3.0,70,0.00,,,0.00,meteohub,2013-02-23 03:35:00,
2013-02-22 22:40:00,28.2,19.8,29.26,South,173,0.0,3.0,70,0.00,,,0.00,meteohub,2013-02-23 03:40:00,
2013-02-22 22:41:00,28.2,19.8,29.26,South,173,0.0,2.0,70,0.00,,,0.00,meteohub,2013-02-23 03:41:00,
2013-02-22 22:42:00,28.0,19.6,29.26,South,173,1.0,2.0,70,0.00,,,0.00,meteohub,2013-02-23 03:42:00,
2013-02-22 22:46:00,28.2,19.8,29.26,SE,124,0.0,3.0,70,0.00,,,0.00,meteohub,2013-02-23 03:46:00,
2013-02-22 22:47:00,28.2,19.8,29.26,ESE,123,0.0,3.0,70,0.00,,,0.00,meteohub,2013-02-23 03:47:00,
2013-02-22 22:49:00,28.2,19.8,29.26,SSE,161,1.0,3.0,70,0.00,,,0.00,meteohub,2013-02-23 03:49:00,
2013-02-22 22:50:00,28.2,19.8,29.26,SSE,151,0.0,3.0,70,0.00,,,0.00,meteohub,2013-02-23 03:50:00,
2013-02-22 22:52:00,28.2,19.8,29.26,East,96,0.0,4.0,70,0.00,,,0.00,meteohub,2013-02-23 03:52:00,
2013-02-22 22:55:00,28.2,19.8,29.26,SE,143,0.0,4.0,70,0.00,,,0.00,meteohub,2013-02-23 03:55:00,
2013-02-22 22:57:00,28.2,19.8,29.26,SSE,159,0.0,4.0,70,0.00,,,0.00,meteohub,2013-02-23 03:57:00,
2013-02-22 22:58:00,28.2,19.8,29.26,SSE,159,0.0,4.0,70,0.00,,,0.00,meteohub,2013-02-23 03:58:00,
2013-02-22 23:01:00,28.4,19.9,29.26,South,170,3.0,4.0,70,0.00,,,0.00,meteohub,2013-02-23 04:01:00,
2013-02-22 23:02:00,28.2,19.4,29.26,SSE,167,0.0,4.0,69,0.00,,,0.00,meteohub,2013-02-23 04:02:00,
2013-02-22 23:04:00,28.2,19.4,29.26,SSE,148,0.0,4.0,69,0.00,,,0.00,meteohub,2013-02-23 04:04:00,
2013-02-22 23:05:00,28.2,19.8,29.26,SSE,148,0.0,4.0,70,0.00,,,0.00,meteohub,2013-02-23 04:05:00,
2013-02-22 23:08:00,28.2,19.8,29.26,ESE,103,0.0,6.0,70,0.00,,,0.00,meteohub,2013-02-23 04:08:00,
2013-02-22 23:10:00,28.2,19.8,29.26,ENE,69,1.0,6.0,70,0.00,,,0.00,meteohub,2013-02-23 04:10:00,
2013-02-22 23:11:00,28.2,19.4,29.26,NNW,339,2.0,6.0,69,0.00,,,0.00,meteohub,2013-02-23 04:11:00,
2013-02-22 23:15:00,28.2,19.4,29.26,SE,141,1.0,6.0,69,0.00,,,0.00,meteohub,2013-02-23 04:15:00,
2013-02-22 23:16:00,28.2,19.4,29.26,SE,126,1.0,6.0,69,0.00,,,0.00,meteohub,2013-02-23 04:16:00,
2013-02-22 23:17:00,28.2,19.4,29.26,South,182,4.0,6.0,69,0.00,,,0.00,meteohub,2013-02-23 04:17:00,
2013-02-22 23:20:00,28.2,19.4,29.26,SSW,192,0.0,7.0,69,0.00,,,0.00,meteohub,2013-02-23 04:20:00,
2013-02-22 23:22:00,28.2,19.4,29.26,SSW,194,1.0,7.0,69,0.00,,,0.00,meteohub,2013-02-23 04:22:00,
2013-02-22 23:23:00,28.2,19.4,29.26,South,190,3.0,7.0,69,0.00,,,0.00,meteohub,2013-02-23 04:23:00,
2013-02-22 23:27:00,28.2,19.4,29.26,South,169,3.0,7.0,69,0.00,,,0.00,meteohub,2013-02-23 04:27:00,
2013-02-22 23:28:00,28.2,19.4,29.26,SSE,165,0.0,7.0,69,0.00,,,0.00,meteohub,2013-02-23 04:28:00,
2013-02-22 23:29:00,28.2,19.4,29.26,SSE,165,0.0,7.0,69,0.00,,,0.00,meteohub,2013-02-23 04:29:00,
2013-02-22 23:32:00,28.2,19.4,29.25,SSE,150,0.0,7.0,69,0.00,,,0.00,meteohub,2013-02-23 04:32:00,
2013-02-22 23:33:00,28.2,19.4,29.26,South,188,1.0,7.0,69,0.00,,,0.00,meteohub,2013-02-23 04:33:00,
2013-02-22 23:34:00,28.2,19.4,29.26,SE,136,1.0,7.0,69,0.00,,,0.00,meteohub,2013-02-23 04:34:00,
2013-02-22 23:35:00,28.2,19.4,29.25,ENE,76,0.0,5.0,69,0.00,,,0.00,meteohub,2013-02-23 04:35:00,
2013-02-22 23:38:00,28.2,19.0,29.25,SE,146,0.0,5.0,68,0.00,,,0.00,meteohub,2013-02-23 04:38:00,
2013-02-22 23:39:00,28.2,19.0,29.25,SE,146,0.0,5.0,68,0.00,,,0.00,meteohub,2013-02-23 04:39:00,
2013-02-22 23:41:00,28.2,19.0,29.25,SSE,159,0.0,5.0,68,0.00,,,0.00,meteohub,2013-02-23 04:41:00,
2013-02-22 23:42:00,28.2,19.0,29.25,SSE,159,0.0,5.0,68,0.00,,,0.00,meteohub,2013-02-23 04:42:00,
2013-02-22 23:46:00,28.2,19.0,29.25,SSE,158,1.0,5.0,68,0.00,,,0.00,meteohub,2013-02-23 04:46:00,
2013-02-22 23:47:00,28.2,19.0,29.25,SSE,158,1.0,5.0,68,0.00,,,0.00,meteohub,2013-02-23 04:47:00,
2013-02-22 23:51:00,28.2,19.0,29.25,SSW,211,0.0,5.0,68,0.00,,,0.00,meteohub,2013-02-23 04:51:00,
2013-02-22 23:52:00,28.2,19.0,29.25,SSW,211,0.0,5.0,68,0.00,,,0.00,meteohub,2013-02-23 04:52:00,
2013-02-22 23:53:00,28.2,19.0,29.25,SSW,211,0.0,5.0,68,0.00,,,0.00,meteohub,2013-02-23 04:53:00,
2013-02-22 23:56:00,28.2,19.0,29.25,SSW,211,0.0,5.0,68,0.00,,,0.00,meteohub,2013-02-23 04:56:00,
2013-02-22 23:57:00,28.2,19.0,29.25,SSW,211,0.0,5.0,68,0.00,,,0.00,meteohub,2013-02-23 04:57:00,
2013-02-22 23:58:00,28.2,19.0,29.25,SSW,211,0.0,5.0,68,0.00,,,0.00,meteohub,2013-02-23 04:58:00,